DHK052 EBBR-ZSPD

Flight info

Callsign DHK052
Flight time N/A
Altitude 19000
Route LNO L607 ARCKY/N0449F230 L607 ROPUV/N0494F290 L607 EMGOD DCT BOMBI DCT KOMIB L984 SULUS Z650 VEMUT DCT BUDEX DCT PESAT DCT TEKNO DCT TEGRI DCT DINRO N743 UDROS UM859 OSDIP/N0492F310 UM859 KARDE UL851 TBN UG261 NOLGA DCT BARAD M747 SUBUT T916 BALUN/K0915F310 T916 TUROK/K0902F330 T916 PIGAL M610 RULAD/K0902S1010 A343 POSOT B215 FKG W188 LIKMI W270 DKO W69 EGILO/K0887S1070 W69 HUR B339 SOTMU/K0889S1040 W98 ELKUR W40 DOXAB/K0891S1070 W40 YQG/K0893S1040 W142 DALIM/K0893S1070 A593 DPX A470 DALNU W166 ZJ W167 SASAN R343 EKIMU
Aircraft B77L/H-SDE1E2E3FGHIJ2J3J4J5M1RWXY/LB1D1

Departure

Time 2026-05-04 23:40
Airport Brussels Airport (EBBR)

Arrival

Time N/A
Airport Shanghai Pudong International Airport (ZSPD)
Time Latitude Longitude Altitude Speed Heading
2026-05-04 23:02 50.90416 4.46242 138 ft 0 kts 336°
2026-05-04 23:28 50.90392 4.46258 140 ft 4 kts 340°
2026-05-04 23:29 50.90366 4.46271 137 ft 4 kts 347°
2026-05-04 23:29 50.90349 4.46276 137 ft 4 kts 359°
2026-05-04 23:29 50.90326 4.46269 138 ft 4 kts 48°
2026-05-04 23:29 50.90321 4.46261 138 ft 1 kts 65°
2026-05-04 23:32 50.90323 4.46266 138 ft 2 kts 65°
2026-05-04 23:33 50.90346 4.46351 137 ft 12 kts 70°
2026-05-04 23:33 50.90357 4.46478 136 ft 12 kts 96°
2026-05-04 23:33 50.90328 4.46599 129 ft 12 kts 116°
2026-05-04 23:33 50.90286 4.46739 128 ft 17 kts 116°
2026-05-04 23:34 50.90235 4.46905 128 ft 17 kts 116°
2026-05-04 23:34 50.90185 4.47066 123 ft 14 kts 116°
2026-05-04 23:34 50.90183 4.47201 125 ft 13 kts 70°
2026-05-04 23:34 50.90223 4.47341 123 ft 17 kts 66°
2026-05-04 23:35 50.90285 4.47558 120 ft 24 kts 65°
2026-05-04 23:35 50.90355 4.47798 122 ft 24 kts 65°
2026-05-04 23:35 50.90424 4.48037 120 ft 24 kts 65°
2026-05-04 23:35 50.90494 4.48277 120 ft 24 kts 65°
2026-05-04 23:36 50.90562 4.48516 121 ft 24 kts 65°
2026-05-04 23:36 50.90631 4.48757 120 ft 24 kts 65°
2026-05-04 23:36 50.90700 4.48996 121 ft 24 kts 65°
2026-05-04 23:36 50.90770 4.49235 121 ft 24 kts 65°
2026-05-04 23:37 50.90838 4.49470 125 ft 23 kts 65°
2026-05-04 23:37 50.90892 4.49656 123 ft 16 kts 65°
2026-05-04 23:37 50.90932 4.49790 124 ft 11 kts 56°
2026-05-04 23:37 50.90986 4.49870 120 ft 11 kts 40°
2026-05-04 23:38 50.91052 4.49930 121 ft 11 kts 17°
2026-05-04 23:38 50.91123 4.49933 120 ft 10 kts 330°
2026-05-04 23:38 50.91125 4.49838 120 ft 0 kts 246°
2026-05-04 23:39 50.91113 4.49795 119 ft 26 kts 246°
2026-05-04 23:39 50.90923 4.49136 125 ft 103 kts 245°
2026-05-04 23:40 50.90531 4.47774 122 ft 170 kts 245°
2026-05-04 23:40 50.89984 4.45867 416 ft 194 kts 248°
2026-05-04 23:40 50.89432 4.43921 1137 ft 201 kts 248°
2026-05-04 23:40 50.88837 4.41853 1734 ft 210 kts 247°
2026-05-04 23:41 50.87991 4.39890 1883 ft 225 kts 213°
2026-05-04 23:41 50.86509 4.39211 1970 ft 228 kts 169°
2026-05-04 23:41 50.85064 4.40204 2083 ft 233 kts 134°
2026-05-04 23:41 50.84156 4.42328 2337 ft 238 kts 107°
2026-05-04 23:42 50.83654 4.44906 2547 ft 254 kts 102°
2026-05-04 23:42 50.83203 4.47667 2949 ft 265 kts 102°
2026-05-04 23:42 50.82739 4.50536 3458 ft 272 kts 102°
2026-05-04 23:42 50.82211 4.53423 4071 ft 276 kts 105°
2026-05-04 23:43 50.81639 4.56341 4733 ft 279 kts 105°
2026-05-04 23:43 50.81060 4.59280 5366 ft 281 kts 105°
2026-05-04 23:43 50.80479 4.62241 6001 ft 283 kts 105°
2026-05-04 23:43 50.79892 4.65232 6620 ft 286 kts 105°
2026-05-04 23:44 50.79308 4.68207 7190 ft 288 kts 105°
2026-05-04 23:44 50.78712 4.71240 7819 ft 290 kts 105°
2026-05-04 23:44 50.78110 4.74297 8409 ft 292 kts 105°
2026-05-04 23:44 50.77499 4.77396 8913 ft 298 kts 105°
2026-05-04 23:45 50.76878 4.80546 9465 ft 301 kts 105°
2026-05-04 23:45 50.76251 4.83714 10031 ft 303 kts 105°
2026-05-04 23:45 50.75613 4.86939 10329 ft 316 kts 105°
2026-05-04 23:45 50.74936 4.90363 10463 ft 334 kts 106°
2026-05-04 23:46 50.74231 4.93916 10602 ft 352 kts 106°
2026-05-04 23:46 50.73482 4.97685 10823 ft 367 kts 106°
2026-05-04 23:46 50.72703 5.01589 11255 ft 376 kts 106°
2026-05-04 23:46 50.71910 5.05550 11805 ft 381 kts 106°
2026-05-04 23:47 50.71109 5.09544 12459 ft 383 kts 106°
2026-05-04 23:47 50.70301 5.13568 13107 ft 385 kts 106°
2026-05-04 23:47 50.69487 5.17619 13625 ft 391 kts 107°
2026-05-04 23:47 50.68656 5.21742 14099 ft 396 kts 107°
2026-05-04 23:48 50.67828 5.25843 14630 ft 399 kts 107°
2026-05-04 23:48 50.66982 5.30023 15206 ft 402 kts 108°
2026-05-04 23:48 50.66128 5.34233 15725 ft 405 kts 108°
2026-05-04 23:48 50.65265 5.38483 16243 ft 409 kts 108°
2026-05-04 23:49 50.64392 5.42767 16739 ft 413 kts 108°
2026-05-04 23:49 50.63509 5.47097 17255 ft 416 kts 108°
2026-05-04 23:49 50.62619 5.51452 17758 ft 420 kts 108°
2026-05-04 23:49 50.61720 5.55841 18268 ft 423 kts 108°
2026-05-04 23:50 50.60810 5.60278 18716 ft 427 kts 109°
2026-05-04 23:50 50.59891 5.64744 19156 ft 429 kts 110°
2026-05-04 23:50 50.58929 5.69192 19566 ft 428 kts 115°
2026-05-04 23:50 50.57368 5.73164 19817 ft 428 kts 136°
2026-05-04 23:51 50.55157 5.76247 20146 ft 426 kts 142°
2026-05-04 23:51 50.52918 5.79357 20488 ft 431 kts 140°
2026-05-04 23:51 50.50721 5.82567 20962 ft 432 kts 139°
2026-05-04 23:51 50.48532 5.85818 21452 ft 434 kts 139°
2026-05-04 23:52 50.46332 5.89089 21873 ft 437 kts 139°
2026-05-04 23:52 50.44113 5.92372 22301 ft 440 kts 139°
2026-05-04 23:52 50.41873 5.95673 22717 ft 442 kts 140°
2026-05-04 23:52 50.39640 5.98952 22932 ft 449 kts 140°
2026-05-04 23:53 50.37332 6.02335 22936 ft 458 kts 140°
2026-05-04 23:53 50.34984 6.05770 22939 ft 465 kts 140°
2026-05-04 23:53 50.32653 6.09295 22934 ft 467 kts 135°
2026-05-04 23:53 50.30734 6.13435 22931 ft 475 kts 122°
2026-05-04 23:54 50.29403 6.18200 22948 ft 481 kts 110°
2026-05-04 23:54 50.28698 6.23335 22944 ft 486 kts 99°
2026-05-04 23:54 50.28298 6.28603 22944 ft 487 kts 100°
2026-05-04 23:54 50.27823 6.33847 22940 ft 487 kts 102°
2026-05-04 23:55 50.27270 6.39062 22929 ft 487 kts 103°
2026-05-04 23:55 50.26688 6.44269 22931 ft 486 kts 103°
2026-05-04 23:55 50.25524 6.54663 22928 ft 485 kts 103°
2026-05-04 23:56 50.24952 6.59859 22933 ft 484 kts 103°
2026-05-04 23:56 50.24390 6.64985 22937 ft 483 kts 103°
2026-05-04 23:56 50.23824 6.70149 22953 ft 483 kts 103°
2026-05-04 23:56 50.23252 6.75339 22951 ft 483 kts 103°
2026-05-04 23:57 50.22679 6.80505 22957 ft 482 kts 103°
2026-05-04 23:57 50.22125 6.85669 22963 ft 483 kts 101°
2026-05-04 23:57 50.21768 6.90920 23055 ft 487 kts 97°
2026-05-04 23:57 50.21516 6.96168 23683 ft 484 kts 97°
2026-05-04 23:58 50.21277 7.01420 23995 ft 488 kts 97°
2026-05-04 23:58 50.21023 7.06741 24193 ft 493 kts 97°
2026-05-04 23:58 50.20748 7.12098 24485 ft 496 kts 97°
2026-05-04 23:58 50.20458 7.17470 24823 ft 498 kts 98°
2026-05-04 23:59 50.20163 7.22804 25132 ft 501 kts 98°
2026-05-04 23:59 50.19857 7.28301 25437 ft 503 kts 98°
2026-05-04 23:59 50.19551 7.33751 25708 ft 506 kts 98°
2026-05-04 23:59 50.19172 7.39164 25955 ft 507 kts 100°
2026-05-05 00:00 50.18688 7.44614 26266 ft 508 kts 101°
2026-05-05 00:00 50.18513 7.46463 26364 ft 509 kts 102°
2026-05-05 00:00 50.17627 7.55571 26817 ft 512 kts 102°
2026-05-05 00:00 50.17099 7.61079 27158 ft 512 kts 101°
2026-05-05 00:01 50.16584 7.66572 27515 ft 511 kts 101°
2026-05-05 00:01 50.16078 7.72064 27884 ft 511 kts 101°
2026-05-05 00:01 50.15576 7.77537 28270 ft 510 kts 101°
2026-05-05 00:01 50.15081 7.82945 28631 ft 509 kts 102°
2026-05-05 00:02 50.14570 7.88480 28941 ft 509 kts 102°
2026-05-05 00:02 50.13555 7.99370 28963 ft 510 kts 102°
2026-05-05 00:03 50.12528 8.10279 28973 ft 507 kts 102°
2026-05-05 00:03 50.11492 8.21144 28985 ft 506 kts 102°
2026-05-05 00:04 50.10448 8.31987 28988 ft 506 kts 102°
2026-05-05 00:04 50.09401 8.42747 28980 ft 506 kts 102°
2026-05-05 00:05 50.08335 8.53603 28934 ft 506 kts 102°
2026-05-05 00:05 50.07261 8.64439 28938 ft 507 kts 102°
2026-05-05 00:06 50.06176 8.75292 28945 ft 507 kts 102°
2026-05-05 00:06 50.05684 8.86278 28952 ft 513 kts 91°
2026-05-05 00:07 50.05931 8.97315 28946 ft 513 kts 91°
2026-05-05 00:07 50.06148 9.08435 28956 ft 513 kts 91°
2026-05-05 00:08 50.06318 9.19542 28958 ft 513 kts 92°
2026-05-05 00:08 50.06464 9.30636 28962 ft 511 kts 92°
2026-05-05 00:09 50.06600 9.41685 28966 ft 510 kts 92°
2026-05-05 00:09 50.06727 9.52725 28971 ft 509 kts 92°
2026-05-05 00:10 50.06843 9.63757 28954 ft 509 kts 92°
2026-05-05 00:10 50.06950 9.74707 28965 ft 508 kts 92°
2026-05-05 00:11 50.07044 9.85708 28966 ft 508 kts 92°
2026-05-05 00:11 50.07130 9.96707 28965 ft 508 kts 93°
2026-05-05 00:12 50.07205 10.07718 28962 ft 508 kts 93°
2026-05-05 00:12 50.07272 10.18715 28957 ft 508 kts 93°
2026-05-05 00:13 50.07329 10.29722 28959 ft 508 kts 93°
2026-05-05 00:13 50.07387 10.40728 28961 ft 509 kts 93°
2026-05-05 00:14 50.07437 10.51683 28952 ft 509 kts 93°
2026-05-05 00:14 50.07476 10.62689 28947 ft 509 kts 93°
2026-05-05 00:15 50.06991 10.73610 28946 ft 503 kts 103°
2026-05-05 00:15 50.05245 10.84074 28947 ft 498 kts 112°
2026-05-05 00:16 50.03018 10.94283 28949 ft 498 kts 112°
2026-05-05 00:16 50.00834 11.04520 28956 ft 499 kts 111°
2026-05-05 00:17 49.99031 11.13050 28975 ft 500 kts 111°
2026-05-05 00:17 49.96846 11.23324 28970 ft 500 kts 112°
2026-05-05 00:18 49.94290 11.35261 28959 ft 501 kts 112°
2026-05-05 00:18 49.92459 11.43875 28939 ft 501 kts 110°
2026-05-05 00:19 49.90615 11.54241 28960 ft 501 kts 108°
2026-05-05 00:19 49.88753 11.64666 28964 ft 500 kts 109°
2026-05-05 00:20 49.87434 11.75278 28965 ft 503 kts 100°
2026-05-05 00:20 49.86572 11.86038 28938 ft 502 kts 100°
2026-05-05 00:21 49.85633 11.96765 28944 ft 502 kts 101°
2026-05-05 00:21 49.84654 12.07479 28935 ft 502 kts 101°
2026-05-05 00:22 49.83669 12.18105 28937 ft 501 kts 101°
2026-05-05 00:22 49.82677 12.28800 28934 ft 501 kts 101°
2026-05-05 00:23 49.81666 12.39479 28928 ft 500 kts 104°
2026-05-05 00:23 49.79377 12.49549 28943 ft 494 kts 120°
2026-05-05 00:24 49.75699 12.58455 28952 ft 491 kts 128°
2026-05-05 00:24 49.71746 12.67092 28933 ft 492 kts 128°
2026-05-05 00:25 49.67824 12.75756 28926 ft 492 kts 127°
2026-05-05 00:25 49.63921 12.84424 28932 ft 492 kts 127°
2026-05-05 00:26 49.60039 12.93035 28928 ft 491 kts 127°
2026-05-05 00:26 49.56124 13.01687 28925 ft 491 kts 127°
2026-05-05 00:27 49.52229 13.10262 28936 ft 490 kts 127°
2026-05-05 00:27 49.48315 13.18849 28921 ft 490 kts 127°
2026-05-05 00:28 49.44393 13.27427 28920 ft 490 kts 127°
2026-05-05 00:28 49.40468 13.35983 28923 ft 489 kts 127°
2026-05-05 00:29 49.36540 13.44519 28935 ft 490 kts 127°
2026-05-05 00:29 49.32622 13.53009 28940 ft 490 kts 127°
2026-05-05 00:30 49.28666 13.61549 28929 ft 491 kts 128°
2026-05-05 00:30 49.24697 13.70092 28938 ft 492 kts 128°
2026-05-05 00:31 49.20722 13.78622 28934 ft 492 kts 128°
2026-05-05 00:31 49.16732 13.87156 28914 ft 493 kts 128°
2026-05-05 00:32 49.12742 13.95664 28935 ft 493 kts 128°
2026-05-05 00:32 49.08763 14.04122 28924 ft 493 kts 128°
2026-05-05 00:33 49.04762 14.12599 28931 ft 492 kts 128°
2026-05-05 00:33 49.00765 14.21043 28916 ft 491 kts 128°
2026-05-05 00:34 48.96761 14.29477 28922 ft 491 kts 128°
2026-05-05 00:34 48.92793 14.37950 28922 ft 492 kts 126°
2026-05-05 00:35 48.89029 14.46677 28927 ft 494 kts 124°
2026-05-05 00:35 48.85297 14.55449 28925 ft 495 kts 125°
2026-05-05 00:36 48.81521 14.64196 28923 ft 495 kts 125°
2026-05-05 00:36 48.77718 14.72906 28924 ft 495 kts 125°
2026-05-05 00:37 48.73905 14.81595 28923 ft 495 kts 126°
2026-05-05 00:37 48.70099 14.90242 28918 ft 496 kts 126°
2026-05-05 00:38 48.66267 14.98925 28910 ft 495 kts 126°
2026-05-05 00:38 48.62432 15.07589 28920 ft 496 kts 126°
2026-05-05 00:39 48.58585 15.16250 28918 ft 496 kts 126°
2026-05-05 00:39 48.54732 15.24899 28911 ft 496 kts 126°
2026-05-05 00:40 48.50870 15.33541 28905 ft 496 kts 126°
2026-05-05 00:40 48.47025 15.42115 28910 ft 496 kts 126°
2026-05-05 00:41 48.43145 15.50741 28910 ft 496 kts 126°
2026-05-05 00:41 48.39266 15.59337 28911 ft 496 kts 126°
2026-05-05 00:42 48.35381 15.67919 28895 ft 496 kts 126°
2026-05-05 00:42 48.31492 15.76483 28915 ft 496 kts 126°
2026-05-05 00:43 48.27618 15.84988 28905 ft 497 kts 126°
2026-05-05 00:43 48.23706 15.93548 28909 ft 497 kts 126°
2026-05-05 00:44 48.19788 16.02094 28905 ft 497 kts 126°
2026-05-05 00:44 48.15857 16.10642 28894 ft 498 kts 126°
2026-05-05 00:45 48.11917 16.19184 28906 ft 498 kts 126°
2026-05-05 00:45 48.07998 16.27653 28905 ft 498 kts 126°
2026-05-05 00:46 48.04037 16.36186 28905 ft 498 kts 126°
2026-05-05 00:46 48.00079 16.44686 28901 ft 498 kts 126°
2026-05-05 00:47 47.96118 16.53167 28913 ft 498 kts 126°
2026-05-05 00:47 47.92143 16.61651 28914 ft 498 kts 126°
2026-05-05 00:48 47.88189 16.70064 28911 ft 499 kts 126°
2026-05-05 00:48 47.84200 16.78525 28927 ft 499 kts 126°
2026-05-05 00:49 47.80208 16.86968 28926 ft 499 kts 126°
2026-05-05 00:49 47.76212 16.95399 28926 ft 499 kts 126°
2026-05-05 00:50 47.72305 17.03926 28920 ft 499 kts 121°
2026-05-05 00:50 47.69370 17.13216 28933 ft 501 kts 110°
2026-05-05 00:51 47.66987 17.22943 28950 ft 502 kts 111°
2026-05-05 00:51 47.64527 17.32641 28954 ft 502 kts 111°
2026-05-05 00:52 47.61991 17.42280 28955 ft 502 kts 115°
2026-05-05 00:52 47.58867 17.51522 28965 ft 501 kts 118°
2026-05-05 00:53 47.55624 17.60677 28970 ft 502 kts 118°
2026-05-05 00:53 47.52398 17.69862 28971 ft 503 kts 118°
2026-05-05 00:54 47.49196 17.79051 28970 ft 503 kts 118°
2026-05-05 00:54 47.46009 17.88197 28983 ft 503 kts 117°
2026-05-05 00:55 47.42791 17.97402 28989 ft 504 kts 118°
2026-05-05 00:55 47.39563 18.06595 28988 ft 504 kts 118°
2026-05-05 00:56 47.36322 18.15787 29000 ft 504 kts 117°
2026-05-05 00:56 47.33097 18.24905 29012 ft 504 kts 117°
2026-05-05 00:57 47.29850 18.34054 29017 ft 503 kts 117°
2026-05-05 00:57 47.26600 18.43178 29017 ft 502 kts 117°
2026-05-05 00:58 47.23342 18.52293 29027 ft 502 kts 117°
2026-05-05 00:58 47.20104 18.61322 29020 ft 502 kts 117°
2026-05-05 00:59 47.16838 18.70400 29026 ft 503 kts 117°
2026-05-05 00:59 47.13561 18.79474 29028 ft 503 kts 117°
2026-05-05 01:00 47.10266 18.88567 29029 ft 503 kts 117°
2026-05-05 01:00 47.06970 18.97632 29033 ft 504 kts 117°
2026-05-05 01:01 47.03662 19.06700 29027 ft 504 kts 117°
2026-05-05 01:01 47.00362 19.15716 29027 ft 504 kts 117°
2026-05-05 01:02 46.97035 19.24773 29034 ft 504 kts 117°
2026-05-05 01:02 46.93730 19.33742 29027 ft 503 kts 117°
2026-05-05 01:03 46.90397 19.42754 29033 ft 503 kts 118°
2026-05-05 01:03 46.87064 19.51738 29032 ft 502 kts 118°
2026-05-05 01:04 46.83728 19.60699 29033 ft 502 kts 118°
2026-05-05 01:04 46.79270 19.72629 29047 ft 501 kts 118°
2026-05-05 01:05 46.75914 19.81574 29046 ft 501 kts 118°
2026-05-05 01:05 46.72582 19.90427 29053 ft 501 kts 118°
2026-05-05 01:06 46.69216 19.99339 29042 ft 502 kts 118°
2026-05-05 01:06 46.65847 20.08232 29045 ft 502 kts 118°
2026-05-05 01:07 46.62466 20.17126 29035 ft 502 kts 118°
2026-05-05 01:07 46.59077 20.26010 29042 ft 502 kts 118°
2026-05-05 01:08 46.55679 20.34892 29046 ft 502 kts 118°
2026-05-05 01:08 46.52275 20.43758 29043 ft 502 kts 118°
2026-05-05 01:09 46.48862 20.52621 29047 ft 502 kts 118°
2026-05-05 01:09 46.45467 20.61405 29053 ft 502 kts 118°
2026-05-05 01:10 46.42045 20.70233 29050 ft 501 kts 118°
2026-05-05 01:10 46.38623 20.79034 29051 ft 501 kts 118°
2026-05-05 01:11 46.35199 20.87812 29055 ft 500 kts 118°
2026-05-05 01:11 46.31767 20.96582 29065 ft 500 kts 118°
2026-05-05 01:12 46.28333 21.05334 29075 ft 499 kts 118°
2026-05-05 01:12 46.25133 21.14211 29066 ft 497 kts 111°
2026-05-05 01:13 46.22545 21.23405 29088 ft 497 kts 110°
2026-05-05 01:13 46.19926 21.32665 29076 ft 497 kts 110°
2026-05-05 01:14 46.17282 21.41879 29073 ft 498 kts 111°
2026-05-05 01:14 46.14614 21.51093 29074 ft 498 kts 111°
2026-05-05 01:15 46.11930 21.60315 29078 ft 498 kts 110°
2026-05-05 01:15 46.09259 21.69466 29071 ft 498 kts 110°
2026-05-05 01:16 46.06565 21.78666 29081 ft 498 kts 110°
2026-05-05 01:16 46.03860 21.87865 29075 ft 499 kts 110°
2026-05-05 01:17 46.01139 21.97087 29089 ft 498 kts 110°
2026-05-05 01:17 45.98422 22.06262 29086 ft 498 kts 110°
2026-05-05 01:18 45.95717 22.15364 29087 ft 498 kts 110°
2026-05-05 01:18 45.92984 22.24524 29092 ft 498 kts 110°
2026-05-05 01:19 45.90247 22.33664 29104 ft 498 kts 110°
2026-05-05 01:19 45.87516 22.42753 29103 ft 498 kts 110°
2026-05-05 01:20 45.84765 22.51873 29106 ft 497 kts 110°
2026-05-05 01:20 45.82009 22.60979 29127 ft 497 kts 110°
2026-05-05 01:21 45.79245 22.70075 29106 ft 498 kts 110°
2026-05-05 01:21 45.76470 22.79178 29111 ft 497 kts 111°
2026-05-05 01:22 45.73713 22.88191 29123 ft 498 kts 111°
2026-05-05 01:22 45.70922 22.97281 29134 ft 498 kts 111°
2026-05-05 01:23 45.68131 23.06336 29128 ft 498 kts 111°
2026-05-05 01:23 45.65328 23.15400 29127 ft 498 kts 111°
2026-05-05 01:24 45.62517 23.24456 29119 ft 498 kts 111°
2026-05-05 01:24 45.59695 23.33517 29116 ft 499 kts 111°
2026-05-05 01:25 45.56882 23.42517 29113 ft 499 kts 111°
2026-05-05 01:25 45.54053 23.51534 29132 ft 498 kts 111°
2026-05-05 01:26 45.51216 23.60548 29122 ft 497 kts 111°
2026-05-05 01:26 45.48373 23.69549 29099 ft 498 kts 111°
2026-05-05 01:27 45.45516 23.78559 29115 ft 498 kts 111°
2026-05-05 01:27 45.42655 23.87556 29118 ft 499 kts 111°
2026-05-05 01:28 45.39783 23.96552 29128 ft 499 kts 112°
2026-05-05 01:28 45.36915 24.05502 29104 ft 499 kts 112°
2026-05-05 01:29 45.34027 24.14490 29103 ft 498 kts 112°
2026-05-05 01:29 45.31139 24.23443 29088 ft 498 kts 112°
2026-05-05 01:30 45.28264 24.32327 29097 ft 498 kts 112°
2026-05-05 01:30 45.25368 24.41248 29086 ft 497 kts 112°
2026-05-05 01:31 45.22464 24.50158 29089 ft 497 kts 112°
2026-05-05 01:31 45.19555 24.59053 29083 ft 497 kts 112°
2026-05-05 01:32 45.16639 24.67942 29089 ft 497 kts 113°
2026-05-05 01:32 45.13706 24.76852 29092 ft 497 kts 113°
2026-05-05 01:33 45.10777 24.85721 29085 ft 497 kts 113°
2026-05-05 01:33 45.07859 24.94524 29093 ft 497 kts 113°
2026-05-05 01:34 45.04914 25.03380 29073 ft 497 kts 113°
2026-05-05 01:34 45.01959 25.12237 29071 ft 497 kts 113°
2026-05-05 01:35 44.98999 25.21079 29068 ft 497 kts 113°
2026-05-05 01:35 44.96034 25.29907 29062 ft 498 kts 113°
2026-05-05 01:36 44.93071 25.38701 29055 ft 498 kts 113°
2026-05-05 01:36 44.90085 25.47530 29052 ft 498 kts 113°
2026-05-05 01:37 44.87091 25.56357 29059 ft 499 kts 113°
2026-05-05 01:37 44.84089 25.65176 29048 ft 499 kts 113°
2026-05-05 01:38 44.81078 25.73993 29039 ft 500 kts 113°
2026-05-05 01:38 44.78057 25.82810 29045 ft 500 kts 114°
2026-05-05 01:39 44.75028 25.91622 29058 ft 500 kts 113°
2026-05-05 01:39 44.71995 26.00417 29040 ft 500 kts 113°
2026-05-05 01:40 44.68967 26.09168 29032 ft 500 kts 114°
2026-05-05 01:40 44.65919 26.17948 29049 ft 499 kts 114°
2026-05-05 01:41 44.62864 26.26720 29031 ft 499 kts 113°
2026-05-05 01:41 44.59825 26.35418 29028 ft 499 kts 114°
2026-05-05 01:42 44.56756 26.44176 29029 ft 499 kts 114°
2026-05-05 01:42 44.53682 26.52917 29038 ft 500 kts 114°
2026-05-05 01:43 44.50599 26.61656 29033 ft 501 kts 114°
2026-05-05 01:43 44.47518 26.70362 29034 ft 502 kts 114°
2026-05-05 01:44 44.44407 26.79124 29036 ft 502 kts 114°
2026-05-05 01:44 44.41289 26.87878 29035 ft 503 kts 114°
2026-05-05 01:45 44.38158 26.96638 29033 ft 503 kts 114°
2026-05-05 01:45 44.35024 27.05379 29032 ft 502 kts 114°
2026-05-05 01:46 44.31907 27.14049 29039 ft 503 kts 115°
2026-05-05 01:46 44.28754 27.22789 29036 ft 504 kts 115°
2026-05-05 01:47 44.25588 27.31535 29037 ft 506 kts 115°
2026-05-05 01:47 44.22402 27.40309 29038 ft 507 kts 115°
2026-05-05 01:48 44.19205 27.49088 29030 ft 509 kts 116°
2026-05-05 01:48 44.16010 27.57832 29042 ft 510 kts 116°
2026-05-05 01:49 44.12776 27.66653 29042 ft 512 kts 116°
2026-05-05 01:49 44.09532 27.75474 29029 ft 513 kts 117°
2026-05-05 01:50 44.06270 27.84317 29040 ft 514 kts 117°
2026-05-05 01:50 44.02995 27.93166 29041 ft 515 kts 117°
2026-05-05 01:51 43.99720 28.01987 29038 ft 516 kts 117°
2026-05-05 01:51 43.96415 28.10859 29035 ft 517 kts 117°
2026-05-05 01:52 43.93104 28.19720 29038 ft 517 kts 117°
2026-05-05 01:52 43.89789 28.28567 29036 ft 517 kts 117°
2026-05-05 01:53 43.86469 28.37396 29042 ft 516 kts 117°
2026-05-05 01:53 43.83712 28.44708 29037 ft 515 kts 117°
2026-05-05 01:54 43.79848 28.54922 29033 ft 514 kts 117°
2026-05-05 01:54 43.76519 28.63695 29031 ft 514 kts 117°
2026-05-05 01:55 43.73752 28.70969 29034 ft 513 kts 117°
2026-05-05 01:55 43.70410 28.79685 29032 ft 512 kts 118°
2026-05-05 01:56 43.66432 28.87845 29035 ft 511 kts 126°
2026-05-05 01:56 43.62211 28.95753 29038 ft 511 kts 125°
2026-05-05 01:57 43.58043 29.03620 29026 ft 511 kts 125°
2026-05-05 01:57 43.53869 29.11545 29028 ft 510 kts 125°
2026-05-05 01:58 43.49693 29.19470 29030 ft 510 kts 124°
2026-05-05 01:58 43.45521 29.27364 29019 ft 510 kts 124°
2026-05-05 01:59 43.41339 29.35250 29019 ft 510 kts 124°
2026-05-05 01:59 43.37148 29.43130 29030 ft 510 kts 124°
2026-05-05 02:00 43.32957 29.50990 29018 ft 509 kts 123°
2026-05-05 02:00 43.28798 29.58770 29015 ft 508 kts 124°
2026-05-05 02:01 43.24614 29.66576 29013 ft 507 kts 124°
2026-05-05 02:01 43.20429 29.74362 29011 ft 507 kts 124°
2026-05-05 02:02 43.16238 29.82141 29012 ft 507 kts 124°
2026-05-05 02:02 43.12045 29.89902 29006 ft 507 kts 124°
2026-05-05 02:03 43.07870 29.97608 29013 ft 507 kts 123°
2026-05-05 02:03 43.03665 30.05352 28997 ft 506 kts 123°
2026-05-05 02:04 42.99456 30.13083 29009 ft 506 kts 123°
2026-05-05 02:04 42.95247 30.20793 29020 ft 507 kts 123°
2026-05-05 02:05 42.91028 30.28501 28993 ft 506 kts 123°
2026-05-05 02:05 42.86810 30.36188 28991 ft 506 kts 123°
2026-05-05 02:06 42.82586 30.43868 28994 ft 505 kts 123°
2026-05-05 02:06 42.78366 30.51523 28993 ft 505 kts 122°
2026-05-05 02:07 42.74726 30.59563 28978 ft 494 kts 108°
2026-05-05 02:07 42.72876 30.68363 28980 ft 482 kts 93°
2026-05-05 02:08 42.72045 30.77410 29000 ft 482 kts 92°
2026-05-05 02:08 42.71174 30.86435 28978 ft 481 kts 92°
2026-05-05 02:09 42.70260 30.95443 28968 ft 480 kts 92°
2026-05-05 02:09 42.69331 31.04417 28970 ft 479 kts 93°
2026-05-05 02:10 42.68396 31.13374 28984 ft 479 kts 92°
2026-05-05 02:10 42.67461 31.22276 28966 ft 478 kts 92°
2026-05-05 02:11 42.66515 31.31224 28964 ft 478 kts 92°
2026-05-05 02:11 42.65562 31.40175 28967 ft 478 kts 92°
2026-05-05 02:12 42.64120 31.53585 28957 ft 478 kts 93°
2026-05-05 02:13 42.63151 31.62499 28954 ft 477 kts 93°
2026-05-05 02:13 42.62177 31.71399 28947 ft 476 kts 93°
2026-05-05 02:14 42.61206 31.80217 28958 ft 475 kts 93°
2026-05-05 02:14 42.60222 31.89088 28959 ft 475 kts 93°
2026-05-05 02:15 42.59233 31.97951 28950 ft 474 kts 93°
2026-05-05 02:15 42.58176 32.06800 28950 ft 475 kts 94°
2026-05-05 02:16 42.57124 32.15636 28952 ft 474 kts 93°
2026-05-05 02:16 42.56141 32.24423 28957 ft 473 kts 93°
2026-05-05 02:17 42.55140 32.33244 28948 ft 472 kts 94°
2026-05-05 02:17 42.54123 32.42037 28953 ft 471 kts 94°
2026-05-05 02:18 42.53094 32.50827 28959 ft 470 kts 94°
2026-05-05 02:18 42.52062 32.59583 28957 ft 469 kts 94°
2026-05-05 02:19 42.51029 32.68291 28951 ft 467 kts 94°
2026-05-05 02:19 42.50001 32.76911 28948 ft 465 kts 94°
2026-05-05 02:20 42.48964 32.85547 28958 ft 464 kts 94°
2026-05-05 02:20 42.47921 32.94184 28955 ft 464 kts 94°
2026-05-05 02:21 42.46878 33.02764 28961 ft 465 kts 94°
2026-05-05 02:21 42.45820 33.11415 28958 ft 466 kts 94°
2026-05-05 02:22 42.44758 33.20083 28957 ft 467 kts 94°
2026-05-05 02:22 42.43695 33.28768 28998 ft 467 kts 94°
2026-05-05 02:23 42.42626 33.37460 28971 ft 467 kts 94°
2026-05-05 02:23 42.41546 33.46122 28954 ft 466 kts 94°
2026-05-05 02:24 42.40455 33.54697 28955 ft 465 kts 94°
2026-05-05 02:24 42.39354 33.63308 29001 ft 464 kts 94°
2026-05-05 02:25 42.38251 33.71907 28963 ft 463 kts 94°
2026-05-05 02:25 42.37143 33.80494 28960 ft 463 kts 94°
2026-05-05 02:26 42.36031 33.89065 28968 ft 462 kts 94°
2026-05-05 02:26 42.34912 33.97643 28964 ft 463 kts 94°
2026-05-05 02:27 42.33799 34.06149 28970 ft 463 kts 95°
2026-05-05 02:27 42.32671 34.14720 28962 ft 462 kts 95°
2026-05-05 02:28 42.31540 34.23264 28967 ft 461 kts 95°
2026-05-05 02:28 42.30405 34.31793 28961 ft 461 kts 95°
2026-05-05 02:29 42.29265 34.40303 28955 ft 461 kts 96°
2026-05-05 02:29 42.28106 34.48789 28967 ft 459 kts 96°
2026-05-05 02:30 42.26942 34.57238 28953 ft 457 kts 96°
2026-05-05 02:30 42.25780 34.65654 28954 ft 455 kts 96°
2026-05-05 02:31 42.24624 34.73994 28969 ft 456 kts 97°
2026-05-05 02:31 42.23447 34.82431 28973 ft 458 kts 97°
2026-05-05 02:32 42.22260 34.90932 29442 ft 461 kts 97°
2026-05-05 02:32 42.21667 34.95163 29939 ft 458 kts 97°
2026-05-05 02:32 42.21074 34.99377 30369 ft 455 kts 97°
2026-05-05 02:32 42.20483 35.03572 30702 ft 454 kts 97°
2026-05-05 02:33 42.19898 35.07718 30889 ft 456 kts 97°
2026-05-05 02:33 42.18700 35.16181 30976 ft 462 kts 98°
2026-05-05 02:34 42.17486 35.24696 30963 ft 462 kts 98°
2026-05-05 02:34 42.16269 35.33183 30959 ft 461 kts 98°
2026-05-05 02:35 42.15047 35.41666 30972 ft 460 kts 98°
2026-05-05 02:35 42.13817 35.50184 30976 ft 467 kts 99°
2026-05-05 02:36 42.12567 35.58805 30953 ft 468 kts 99°
2026-05-05 02:36 42.11313 35.67405 30958 ft 468 kts 99°
2026-05-05 02:37 42.10052 35.76012 30976 ft 467 kts 99°
2026-05-05 02:37 42.08795 35.84545 30957 ft 468 kts 99°
2026-05-05 02:38 42.07519 35.93158 30962 ft 469 kts 99°
2026-05-05 02:38 42.06226 36.01837 30959 ft 470 kts 100°
2026-05-05 02:39 42.04940 36.10424 30959 ft 471 kts 100°
2026-05-05 02:39 42.03638 36.19080 30960 ft 472 kts 100°
2026-05-05 02:40 42.02324 36.27754 30958 ft 474 kts 100°
2026-05-05 02:40 42.01002 36.36442 30955 ft 474 kts 101°
2026-05-05 02:41 41.99895 36.43675 30958 ft 475 kts 101°
2026-05-05 02:41 41.98341 36.53788 30951 ft 475 kts 101°
2026-05-05 02:42 41.97215 36.61068 30955 ft 475 kts 101°
2026-05-05 02:42 41.95874 36.69705 30955 ft 475 kts 101°
2026-05-05 02:43 41.94519 36.78384 30960 ft 474 kts 101°
2026-05-05 02:43 41.93156 36.87070 30955 ft 474 kts 101°
2026-05-05 02:44 41.91789 36.95743 30957 ft 475 kts 101°
2026-05-05 02:44 41.90318 37.04390 30951 ft 475 kts 106°
2026-05-05 02:45 41.87917 37.12654 30959 ft 476 kts 112°
2026-05-05 02:45 41.85311 37.20760 30959 ft 476 kts 112°
2026-05-05 02:46 41.82716 37.28949 30956 ft 477 kts 112°
2026-05-05 02:46 41.80129 37.37147 30960 ft 477 kts 112°
2026-05-05 02:47 41.77536 37.45347 30959 ft 477 kts 112°
2026-05-05 02:47 41.74936 37.53533 30957 ft 478 kts 112°
2026-05-05 02:48 41.72341 37.61684 30961 ft 478 kts 113°
2026-05-05 02:48 41.69726 37.69863 30961 ft 478 kts 113°
2026-05-05 02:49 41.67091 37.78054 30956 ft 478 kts 113°
2026-05-05 02:49 41.64465 37.86194 30956 ft 479 kts 113°
2026-05-05 02:50 41.61824 37.94360 30959 ft 479 kts 113°
2026-05-05 02:50 41.59176 38.02529 30949 ft 479 kts 114°
2026-05-05 02:51 41.56517 38.10706 30954 ft 479 kts 114°
2026-05-05 02:51 41.53858 38.18859 30948 ft 479 kts 114°
2026-05-05 02:52 41.51208 38.26958 30949 ft 479 kts 114°
2026-05-05 02:52 41.48537 38.35102 30945 ft 479 kts 115°
2026-05-05 02:53 41.45857 38.43245 30948 ft 479 kts 115°
2026-05-05 02:53 41.43170 38.51387 30941 ft 479 kts 115°
2026-05-05 02:54 41.40495 38.59470 30932 ft 479 kts 116°
2026-05-05 02:54 41.37793 38.67607 30937 ft 480 kts 116°
2026-05-05 02:55 41.35087 38.75739 30946 ft 480 kts 116°
2026-05-05 02:55 41.32389 38.83872 30945 ft 481 kts 116°
2026-05-05 02:56 41.29735 38.91991 30929 ft 481 kts 116°
2026-05-05 02:56 41.27043 39.00204 30939 ft 482 kts 116°
2026-05-05 02:57 41.24369 39.08320 30945 ft 482 kts 116°
2026-05-05 02:57 41.21668 39.16491 30932 ft 483 kts 117°
2026-05-05 02:58 41.18884 39.24621 30934 ft 483 kts 118°
2026-05-05 02:58 41.16031 39.32718 30948 ft 484 kts 118°
2026-05-05 02:59 41.13178 39.40826 30952 ft 485 kts 118°
2026-05-05 02:59 41.10326 39.48950 30950 ft 485 kts 118°
2026-05-05 03:00 41.07491 39.57012 30931 ft 486 kts 118°
2026-05-05 03:00 41.04627 39.65129 30946 ft 486 kts 118°
2026-05-05 03:01 41.01756 39.73254 30941 ft 484 kts 117°
2026-05-05 03:01 41.00650 39.77435 30944 ft 490 kts 105°
2026-05-05 03:01 41.00200 39.81928 30978 ft 495 kts 95°
2026-05-05 03:01 41.00364 39.86501 30968 ft 501 kts 83°
2026-05-05 03:02 41.01045 39.91032 30979 ft 502 kts 81°
2026-05-05 03:02 41.02512 40.00089 30962 ft 504 kts 81°
2026-05-05 03:03 41.03934 40.09220 30947 ft 506 kts 82°
2026-05-05 03:03 41.05302 40.18371 30937 ft 507 kts 82°
2026-05-05 03:04 41.06651 40.27555 30933 ft 508 kts 82°
2026-05-05 03:04 41.07996 40.36766 30935 ft 509 kts 82°
2026-05-05 03:05 41.09331 40.45931 30932 ft 509 kts 82°
2026-05-05 03:05 41.10665 40.55140 30933 ft 508 kts 82°
2026-05-05 03:06 41.11993 40.64361 30940 ft 508 kts 82°
2026-05-05 03:06 41.13311 40.73569 30922 ft 507 kts 82°
2026-05-05 03:07 41.14611 40.82705 30934 ft 507 kts 82°
2026-05-05 03:07 41.15913 40.91916 30940 ft 508 kts 82°
2026-05-05 03:08 41.17211 41.01158 30939 ft 509 kts 82°
2026-05-05 03:08 41.18505 41.10420 30932 ft 510 kts 82°
2026-05-05 03:09 41.19795 41.19701 30916 ft 511 kts 83°
2026-05-05 03:09 41.21077 41.29002 30899 ft 512 kts 83°
2026-05-05 03:10 41.22342 41.38226 30913 ft 511 kts 83°
2026-05-05 03:10 41.23612 41.47527 30922 ft 511 kts 83°
2026-05-05 03:11 41.24869 41.56824 30898 ft 512 kts 83°
2026-05-05 03:11 41.26126 41.66170 30921 ft 513 kts 83°
2026-05-05 03:12 41.27378 41.75526 30909 ft 514 kts 83°
2026-05-05 03:12 41.28613 41.84834 30923 ft 514 kts 83°
2026-05-05 03:13 41.29850 41.94195 30922 ft 514 kts 83°
2026-05-05 03:13 41.31074 42.03577 30938 ft 515 kts 83°
2026-05-05 03:14 41.32278 42.12998 30927 ft 516 kts 83°
2026-05-05 03:14 41.33472 42.22402 30925 ft 516 kts 83°
2026-05-05 03:15 41.34665 42.31831 30929 ft 516 kts 83°
2026-05-05 03:15 41.35842 42.41192 30916 ft 514 kts 83°
2026-05-05 03:16 41.37019 42.50606 30916 ft 514 kts 83°
2026-05-05 03:16 41.38179 42.59962 30918 ft 514 kts 83°
2026-05-05 03:17 41.39335 42.69355 30938 ft 514 kts 84°
2026-05-05 03:17 41.40485 42.78767 30933 ft 515 kts 84°
2026-05-05 03:18 41.41631 42.88196 30933 ft 515 kts 84°
2026-05-05 03:18 41.42670 42.97643 30931 ft 514 kts 88°
2026-05-05 03:19 41.42520 43.11833 30914 ft 511 kts 96°
2026-05-05 03:19 41.42226 43.21299 30925 ft 511 kts 95°
2026-05-05 03:20 41.41963 43.30761 30919 ft 511 kts 95°
2026-05-05 03:20 41.41713 43.40163 30925 ft 511 kts 95°
2026-05-05 03:21 41.41455 43.49627 30899 ft 511 kts 95°
2026-05-05 03:21 41.41187 43.59077 30920 ft 510 kts 96°
2026-05-05 03:22 41.40908 43.68537 30908 ft 511 kts 96°
2026-05-05 03:22 41.40623 43.77991 30920 ft 511 kts 95°
2026-05-05 03:23 41.40328 43.87463 30925 ft 510 kts 96°
2026-05-05 03:23 41.40030 43.96846 30908 ft 510 kts 96°
2026-05-05 03:24 41.39722 44.06295 30921 ft 511 kts 96°
2026-05-05 03:24 41.39405 44.15764 30934 ft 512 kts 96°
2026-05-05 03:25 41.39079 44.25247 30914 ft 513 kts 96°
2026-05-05 03:25 41.38748 44.34740 30919 ft 513 kts 96°
2026-05-05 03:26 41.38406 44.44227 30919 ft 513 kts 96°
2026-05-05 03:26 41.38057 44.53713 30916 ft 512 kts 96°
2026-05-05 03:27 41.37701 44.63193 30916 ft 511 kts 96°
2026-05-05 03:27 41.37340 44.72591 30912 ft 511 kts 96°
2026-05-05 03:28 41.36971 44.82027 30890 ft 510 kts 97°
2026-05-05 03:28 41.36656 44.89887 30907 ft 512 kts 97°
2026-05-05 03:29 41.36270 44.99388 30918 ft 515 kts 97°
2026-05-05 03:29 41.35511 45.08865 30913 ft 513 kts 105°
2026-05-05 03:30 41.33535 45.17920 30918 ft 508 kts 114°
2026-05-05 03:30 41.31175 45.26808 30903 ft 511 kts 115°
2026-05-05 03:31 41.28847 45.35750 30914 ft 513 kts 114°
2026-05-05 03:31 41.26533 45.44735 30912 ft 514 kts 114°
2026-05-05 03:32 41.24217 45.53695 30883 ft 515 kts 115°
2026-05-05 03:32 41.21875 45.62708 30903 ft 516 kts 115°
2026-05-05 03:33 41.19512 45.71714 30912 ft 517 kts 116°
2026-05-05 03:33 41.17120 45.80723 30904 ft 517 kts 116°
2026-05-05 03:34 41.14719 45.89738 30903 ft 518 kts 117°
2026-05-05 03:34 41.12313 45.98752 30914 ft 519 kts 117°
2026-05-05 03:35 41.09894 46.07786 30915 ft 520 kts 117°
2026-05-05 03:35 41.07464 46.16829 30900 ft 521 kts 118°
2026-05-05 03:36 41.05026 46.25874 30925 ft 522 kts 118°
2026-05-05 03:36 41.02599 46.34885 30921 ft 524 kts 118°
2026-05-05 03:37 41.00175 46.43996 30875 ft 524 kts 118°
2026-05-05 03:37 40.97753 46.53078 30902 ft 522 kts 118°
2026-05-05 03:38 40.95326 46.62117 30910 ft 521 kts 118°
2026-05-05 03:38 40.92908 46.71088 30908 ft 520 kts 118°
2026-05-05 03:39 40.90921 46.80346 30912 ft 534 kts 104°
2026-05-05 03:39 40.90752 46.85309 30923 ft 545 kts 94°
2026-05-05 03:39 40.91177 46.90320 30904 ft 555 kts 83°
2026-05-05 03:40 40.93103 47.00237 30882 ft 557 kts 80°
2026-05-05 03:40 40.95053 47.10092 30921 ft 557 kts 81°
2026-05-05 03:41 40.96917 47.20038 30929 ft 556 kts 82°
2026-05-05 03:41 40.98731 47.30011 30915 ft 557 kts 82°
2026-05-05 03:42 41.00536 47.39983 30926 ft 556 kts 82°
2026-05-05 03:42 41.02336 47.49939 30922 ft 556 kts 82°
2026-05-05 03:43 41.04121 47.59852 30920 ft 557 kts 82°
2026-05-05 03:43 41.05914 47.69863 30899 ft 558 kts 82°
2026-05-05 03:44 41.07700 47.79893 30900 ft 559 kts 82°
2026-05-05 03:44 41.09480 47.89937 30900 ft 559 kts 82°
2026-05-05 03:45 41.11372 47.99949 30896 ft 563 kts 77°
2026-05-05 03:45 41.14072 48.09667 30923 ft 561 kts 73°
2026-05-05 03:46 41.16838 48.19328 30906 ft 558 kts 73°
2026-05-05 03:46 41.19539 48.28988 30924 ft 558 kts 74°
2026-05-05 03:47 41.22209 48.38668 30864 ft 557 kts 74°
2026-05-05 03:47 41.24862 48.48329 30935 ft 557 kts 74°
2026-05-05 03:48 41.27505 48.57982 30940 ft 560 kts 74°
2026-05-05 03:48 41.30172 48.67751 30938 ft 562 kts 74°
2026-05-05 03:49 41.32839 48.77554 30945 ft 563 kts 74°
2026-05-05 03:49 41.35500 48.87371 30946 ft 564 kts 74°
2026-05-05 03:50 41.38147 48.97186 30936 ft 561 kts 74°
2026-05-05 03:50 41.40750 49.06894 30936 ft 559 kts 74°
2026-05-05 03:51 41.43350 49.16637 30938 ft 557 kts 74°
2026-05-05 03:51 41.45934 49.26353 30941 ft 555 kts 74°
2026-05-05 03:52 41.48509 49.36074 30940 ft 555 kts 74°
2026-05-05 03:52 41.51073 49.45791 30941 ft 555 kts 74°
2026-05-05 03:53 41.53628 49.55516 30935 ft 556 kts 75°
2026-05-05 03:53 41.56183 49.65273 30940 ft 556 kts 75°
2026-05-05 03:54 41.58730 49.75041 30940 ft 556 kts 75°
2026-05-05 03:54 41.61268 49.84816 30923 ft 556 kts 75°
2026-05-05 03:55 41.63780 49.94525 30928 ft 555 kts 75°
2026-05-05 03:55 41.66292 50.04280 30941 ft 554 kts 75°
2026-05-05 03:56 41.68794 50.14033 30925 ft 554 kts 75°
2026-05-05 03:56 41.71286 50.23783 30929 ft 553 kts 75°
2026-05-05 03:57 41.73766 50.33531 30940 ft 553 kts 75°
2026-05-05 03:57 41.76236 50.43280 30936 ft 552 kts 75°
2026-05-05 03:58 41.78696 50.53027 30924 ft 552 kts 75°
2026-05-05 03:58 41.81144 50.62766 30925 ft 551 kts 75°
2026-05-05 03:59 41.83583 50.72512 30926 ft 551 kts 75°
2026-05-05 03:59 41.86003 50.82220 30918 ft 551 kts 75°
2026-05-05 04:00 41.88426 50.91981 30924 ft 551 kts 75°
2026-05-05 04:00 41.90839 51.01741 30925 ft 551 kts 75°
2026-05-05 04:01 41.93248 51.11531 30895 ft 551 kts 75°
2026-05-05 04:01 41.95642 51.21296 30911 ft 550 kts 75°
2026-05-05 04:02 41.98025 51.31060 30912 ft 550 kts 75°
2026-05-05 04:02 42.00413 51.40821 30897 ft 549 kts 73°
2026-05-05 04:03 42.03566 51.50205 30915 ft 551 kts 62°
2026-05-05 04:03 42.07720 51.58873 30920 ft 551 kts 57°
2026-05-05 04:04 42.11970 51.67468 30903 ft 551 kts 57°
2026-05-05 04:04 42.16171 51.76097 30910 ft 550 kts 58°
2026-05-05 04:05 42.20333 51.84753 30908 ft 550 kts 58°
2026-05-05 04:05 42.24452 51.93361 30891 ft 549 kts 58°
2026-05-05 04:06 42.28599 52.02041 30904 ft 549 kts 58°
2026-05-05 04:06 42.32739 52.10728 30905 ft 550 kts 58°
2026-05-05 04:07 42.36882 52.19443 30902 ft 551 kts 58°
2026-05-05 04:07 42.41020 52.28175 30903 ft 551 kts 58°
2026-05-05 04:08 42.45151 52.36917 30899 ft 552 kts 58°
2026-05-05 04:08 42.49284 52.45690 30895 ft 552 kts 58°
2026-05-05 04:09 42.53408 52.54469 30901 ft 552 kts 58°
2026-05-05 04:09 42.57500 52.63206 30898 ft 552 kts 58°
2026-05-05 04:10 42.61619 52.72027 30896 ft 552 kts 58°
2026-05-05 04:10 42.65727 52.80848 30903 ft 552 kts 58°
2026-05-05 04:11 42.69824 52.89674 30900 ft 552 kts 58°
2026-05-05 04:11 42.73889 52.98458 30898 ft 551 kts 58°
2026-05-05 04:12 42.77967 53.07295 30893 ft 551 kts 58°
2026-05-05 04:12 42.82031 53.16128 30899 ft 550 kts 58°
2026-05-05 04:13 42.86088 53.24972 30893 ft 550 kts 58°
2026-05-05 04:13 42.90136 53.33824 30892 ft 549 kts 58°
2026-05-05 04:14 42.94187 53.42711 30895 ft 549 kts 58°
2026-05-05 04:14 42.98199 53.51572 30891 ft 548 kts 60°
2026-05-05 04:15 43.01118 53.61071 30893 ft 544 kts 76°
2026-05-05 04:15 43.02309 53.69535 30887 ft 539 kts 88°
2026-05-05 04:16 43.03011 53.81396 30880 ft 539 kts 88°
2026-05-05 04:16 43.03529 53.89963 30889 ft 540 kts 88°
2026-05-05 04:17 43.04186 54.00142 30891 ft 541 kts 88°
2026-05-05 04:17 43.04861 54.10393 30878 ft 542 kts 88°
2026-05-05 04:18 43.05530 54.20674 30895 ft 543 kts 87°
2026-05-05 04:18 43.06187 54.30963 30879 ft 543 kts 88°
2026-05-05 04:19 43.06829 54.41214 30887 ft 543 kts 88°
2026-05-05 04:19 43.07465 54.51516 30887 ft 543 kts 88°
2026-05-05 04:20 43.08091 54.61810 30893 ft 543 kts 88°
2026-05-05 04:20 43.08706 54.72057 30876 ft 542 kts 88°
2026-05-05 04:21 43.09314 54.82348 30872 ft 542 kts 88°
2026-05-05 04:21 43.09911 54.92617 30884 ft 541 kts 88°
2026-05-05 04:22 43.10500 55.02899 30875 ft 541 kts 88°
2026-05-05 04:22 43.11078 55.13150 30875 ft 540 kts 88°
2026-05-05 04:23 43.11646 55.23396 30881 ft 539 kts 88°
2026-05-05 04:23 43.12200 55.33567 30881 ft 539 kts 88°
2026-05-05 04:24 43.12750 55.43817 30888 ft 539 kts 88°
2026-05-05 04:25 43.13557 55.59179 30868 ft 539 kts 88°
2026-05-05 04:25 43.14083 55.69413 30885 ft 539 kts 88°
2026-05-05 04:26 43.14600 55.79659 30899 ft 540 kts 88°
2026-05-05 04:26 43.15110 55.89914 30885 ft 538 kts 88°
2026-05-05 04:27 43.15794 56.00104 30870 ft 538 kts 82°
2026-05-05 04:27 43.17594 56.09997 30887 ft 538 kts 74°
2026-05-05 04:28 43.19752 56.19823 30881 ft 537 kts 74°
2026-05-05 04:28 43.21862 56.29657 30890 ft 536 kts 74°
2026-05-05 04:29 43.23926 56.39497 30888 ft 536 kts 75°
2026-05-05 04:29 43.25960 56.49291 30897 ft 537 kts 75°
2026-05-05 04:30 43.27999 56.59154 30898 ft 537 kts 75°
2026-05-05 04:30 43.30033 56.69018 30878 ft 538 kts 75°
2026-05-05 04:31 43.32061 56.78901 30897 ft 538 kts 75°
2026-05-05 04:31 43.34087 56.88820 30899 ft 538 kts 75°
2026-05-05 04:32 43.36102 56.98737 30897 ft 538 kts 75°
2026-05-05 04:32 43.38107 57.08651 30897 ft 538 kts 75°
2026-05-05 04:33 43.40086 57.18486 30894 ft 537 kts 75°
2026-05-05 04:33 43.42068 57.28385 30901 ft 536 kts 75°
2026-05-05 04:34 43.44037 57.38270 30900 ft 535 kts 75°
2026-05-05 04:34 43.45992 57.48132 30905 ft 534 kts 75°
2026-05-05 04:35 43.47938 57.57998 30907 ft 533 kts 75°
2026-05-05 04:35 43.49870 57.67840 30907 ft 532 kts 75°
2026-05-05 04:36 43.51793 57.77689 30915 ft 531 kts 75°
2026-05-05 04:36 43.53702 57.87515 30915 ft 531 kts 75°
2026-05-05 04:37 43.55601 57.97335 30922 ft 530 kts 75°
2026-05-05 04:37 43.57491 58.07164 30919 ft 530 kts 75°
2026-05-05 04:38 43.59356 58.16911 30923 ft 529 kts 75°
2026-05-05 04:38 43.61226 58.26732 30925 ft 528 kts 75°
2026-05-05 04:39 43.63086 58.36543 30931 ft 527 kts 76°
2026-05-05 04:39 43.64900 58.46350 30912 ft 526 kts 76°
2026-05-05 04:40 43.66682 58.56156 30930 ft 526 kts 76°
2026-05-05 04:40 43.68460 58.65960 30925 ft 526 kts 76°
2026-05-05 04:41 43.70233 58.75757 30929 ft 525 kts 76°
2026-05-05 04:41 43.71997 58.85558 30946 ft 525 kts 76°
2026-05-05 04:42 43.73741 58.95306 30938 ft 525 kts 76°
2026-05-05 04:42 43.75489 59.05111 30936 ft 525 kts 76°
2026-05-05 04:43 43.77277 59.14912 30938 ft 525 kts 76°
2026-05-05 04:43 43.79082 59.24737 30946 ft 525 kts 76°
2026-05-05 04:44 43.80868 59.34550 30941 ft 526 kts 76°
2026-05-05 04:44 43.82632 59.44330 30936 ft 526 kts 76°
2026-05-05 04:45 43.84397 59.54168 30943 ft 526 kts 76°
2026-05-05 04:45 43.86154 59.64006 30952 ft 526 kts 76°
2026-05-05 04:46 43.87895 59.73843 30947 ft 525 kts 76°
2026-05-05 04:46 43.89588 59.83669 30944 ft 523 kts 77°
2026-05-05 04:47 43.91260 59.93485 30951 ft 522 kts 77°
2026-05-05 04:47 43.92915 60.03222 30958 ft 521 kts 77°
2026-05-05 04:48 43.94570 60.12996 30955 ft 520 kts 77°
2026-05-05 04:48 43.96216 60.22763 30942 ft 520 kts 77°
2026-05-05 04:49 43.97856 60.32554 30969 ft 520 kts 77°
2026-05-05 04:49 43.99488 60.42350 30960 ft 520 kts 77°
2026-05-05 04:50 44.01111 60.52151 30980 ft 521 kts 77°
2026-05-05 04:50 44.02727 60.61966 30980 ft 521 kts 77°
2026-05-05 04:51 44.04333 60.71772 30990 ft 520 kts 77°
2026-05-05 04:51 44.05930 60.81583 30973 ft 520 kts 77°
2026-05-05 04:52 44.07503 60.91306 30979 ft 519 kts 77°
2026-05-05 04:52 44.09081 61.01115 30976 ft 518 kts 77°
2026-05-05 04:53 44.10647 61.10905 30981 ft 518 kts 77°
2026-05-05 04:53 44.12204 61.20691 30985 ft 518 kts 77°
2026-05-05 04:54 44.13745 61.30485 30986 ft 518 kts 78°
2026-05-05 04:54 44.14542 61.40397 31007 ft 517 kts 87°
2026-05-05 04:55 44.14889 61.50422 30984 ft 518 kts 87°
2026-05-05 04:55 44.15307 61.60438 30988 ft 519 kts 86°
2026-05-05 04:56 44.15746 61.70484 30980 ft 519 kts 86°
2026-05-05 04:56 44.16180 61.80522 31006 ft 519 kts 86°
2026-05-05 04:57 44.16602 61.90506 30991 ft 520 kts 86°
2026-05-05 04:57 44.17016 62.00554 30993 ft 520 kts 86°
2026-05-05 04:58 44.17423 62.10631 30990 ft 520 kts 86°
2026-05-05 04:58 44.17821 62.20706 30992 ft 520 kts 86°
2026-05-05 04:59 44.18211 62.30759 30992 ft 520 kts 87°
2026-05-05 04:59 44.18565 62.40771 30991 ft 519 kts 87°
2026-05-05 05:00 44.18895 62.50806 30991 ft 518 kts 87°
2026-05-05 05:00 44.19220 62.60848 30999 ft 518 kts 87°
2026-05-05 05:01 44.19540 62.70882 31004 ft 518 kts 87°
2026-05-05 05:01 44.19851 62.80874 30997 ft 518 kts 87°
2026-05-05 05:02 44.20154 62.90913 30997 ft 518 kts 87°
2026-05-05 05:02 44.20448 63.00964 31014 ft 518 kts 88°
2026-05-05 05:03 44.20734 63.10992 30992 ft 517 kts 88°
2026-05-05 05:03 44.20958 63.19312 30997 ft 516 kts 88°
2026-05-05 05:04 44.21108 63.29318 31002 ft 515 kts 89°
2026-05-05 05:04 44.21208 63.39305 30999 ft 515 kts 89°
2026-05-05 05:05 44.21315 63.49280 31006 ft 514 kts 89°
2026-05-05 05:05 44.21425 63.59246 30995 ft 514 kts 89°
2026-05-05 05:06 44.21529 63.69214 30995 ft 513 kts 89°
2026-05-05 05:06 44.21623 63.79162 30994 ft 513 kts 89°
2026-05-05 05:07 44.21707 63.89112 31005 ft 513 kts 89°
2026-05-05 05:07 44.21782 63.98995 30991 ft 513 kts 90°
2026-05-05 05:08 44.21851 64.08930 30988 ft 512 kts 90°
2026-05-05 05:08 44.21944 64.18860 31002 ft 512 kts 88°
2026-05-05 05:09 44.22370 64.28757 31005 ft 511 kts 86°
2026-05-05 05:09 44.22853 64.38636 30988 ft 511 kts 86°
2026-05-05 05:10 44.23302 64.48518 31000 ft 510 kts 87°
2026-05-05 05:10 44.23724 64.58391 30988 ft 510 kts 87°
2026-05-05 05:11 44.24137 64.68262 30990 ft 509 kts 87°
2026-05-05 05:11 44.24541 64.78055 30983 ft 509 kts 87°
2026-05-05 05:12 44.24933 64.87907 30998 ft 508 kts 88°
2026-05-05 05:12 44.25303 64.97759 30996 ft 508 kts 88°
2026-05-05 05:13 44.25663 65.07594 31000 ft 507 kts 88°
2026-05-05 05:13 44.26017 65.17423 30984 ft 507 kts 88°
2026-05-05 05:14 44.26363 65.27238 30986 ft 506 kts 88°
2026-05-05 05:14 44.26700 65.37047 30995 ft 505 kts 88°
2026-05-05 05:15 44.27027 65.46785 30992 ft 505 kts 88°
2026-05-05 05:15 44.27347 65.56583 30987 ft 504 kts 88°
2026-05-05 05:16 44.27657 65.66354 30984 ft 504 kts 89°
2026-05-05 05:16 44.27959 65.76128 30990 ft 504 kts 89°
2026-05-05 05:17 44.28253 65.85907 30991 ft 504 kts 89°
2026-05-05 05:17 44.28538 65.95631 30989 ft 504 kts 89°
2026-05-05 05:18 44.28815 66.05410 30994 ft 504 kts 89°
2026-05-05 05:18 44.29085 66.15196 30994 ft 505 kts 89°
2026-05-05 05:19 44.29346 66.24992 30989 ft 505 kts 89°
2026-05-05 05:19 44.29600 66.34788 30990 ft 505 kts 89°
2026-05-05 05:20 44.29840 66.44575 30996 ft 504 kts 89°
2026-05-05 05:20 44.29946 66.54298 30988 ft 504 kts 90°
2026-05-05 05:21 44.29992 66.64085 30996 ft 503 kts 90°
2026-05-05 05:21 44.30045 66.73858 31001 ft 503 kts 90°
2026-05-05 05:22 44.30105 66.83618 30999 ft 503 kts 90°
2026-05-05 05:22 44.30159 66.93407 31004 ft 503 kts 90°
2026-05-05 05:23 44.30204 67.03169 31003 ft 503 kts 90°
2026-05-05 05:23 44.30240 67.12894 31006 ft 503 kts 91°
2026-05-05 05:24 44.30267 67.22662 31008 ft 503 kts 91°
2026-05-05 05:24 44.30286 67.32437 31010 ft 503 kts 91°
2026-05-05 05:25 44.30298 67.42137 31014 ft 503 kts 91°
2026-05-05 05:25 44.30305 67.51895 31012 ft 502 kts 90°
2026-05-05 05:26 44.30730 67.61604 31018 ft 501 kts 86°
2026-05-05 05:26 44.31289 67.71281 31016 ft 500 kts 86°
2026-05-05 05:27 44.31825 67.80946 31016 ft 499 kts 86°
2026-05-05 05:27 44.32582 67.95428 31019 ft 497 kts 86°
2026-05-05 05:28 44.33071 68.05055 31022 ft 496 kts 86°
2026-05-05 05:28 44.33551 68.14672 31022 ft 496 kts 86°
2026-05-05 05:29 44.34022 68.24233 31020 ft 497 kts 86°
2026-05-05 05:29 44.34489 68.33867 31023 ft 497 kts 86°
2026-05-05 05:30 44.34948 68.43519 31027 ft 498 kts 86°
2026-05-05 05:30 44.35399 68.53185 31028 ft 498 kts 86°
2026-05-05 05:31 44.35841 68.62829 31033 ft 499 kts 86°
2026-05-05 05:31 44.36277 68.72504 31031 ft 498 kts 86°
2026-05-05 05:32 44.36705 68.82178 31031 ft 498 kts 86°
2026-05-05 05:32 44.37076 68.91780 31030 ft 497 kts 89°
2026-05-05 05:33 44.36690 69.01433 31393 ft 496 kts 94°
2026-05-05 05:33 44.36425 69.06210 31940 ft 491 kts 94°
2026-05-05 05:33 44.36164 69.10965 32282 ft 491 kts 94°
2026-05-05 05:34 44.35910 69.15730 32550 ft 491 kts 94°
2026-05-05 05:34 44.35663 69.20491 32870 ft 491 kts 94°
2026-05-05 05:34 44.35420 69.25262 32977 ft 493 kts 94°
2026-05-05 05:34 44.35177 69.30041 33025 ft 493 kts 94°
2026-05-05 05:35 44.34691 69.39530 33044 ft 491 kts 94°
2026-05-05 05:35 44.34194 69.49034 33042 ft 488 kts 94°
2026-05-05 05:36 44.33692 69.58472 33050 ft 487 kts 94°
2026-05-05 05:36 44.33182 69.67904 33051 ft 487 kts 94°
2026-05-05 05:37 44.32666 69.77318 33051 ft 487 kts 94°
2026-05-05 05:37 44.32143 69.86695 33059 ft 487 kts 94°
2026-05-05 05:38 44.31608 69.96160 33059 ft 488 kts 94°
2026-05-05 05:38 44.31067 70.05606 33061 ft 488 kts 94°
2026-05-05 05:39 44.30516 70.15063 33060 ft 488 kts 94°
2026-05-05 05:39 44.29963 70.24445 33063 ft 488 kts 94°
2026-05-05 05:40 44.29399 70.33891 33057 ft 487 kts 94°
2026-05-05 05:40 44.28829 70.43311 33064 ft 486 kts 94°
2026-05-05 05:41 44.28255 70.52706 33066 ft 485 kts 94°
2026-05-05 05:41 44.27675 70.62080 33065 ft 484 kts 94°
2026-05-05 05:42 44.27088 70.71434 33062 ft 483 kts 94°
2026-05-05 05:42 44.26494 70.80771 33068 ft 483 kts 94°
2026-05-05 05:43 44.25897 70.90046 33067 ft 482 kts 94°
2026-05-05 05:43 44.25290 70.99366 33070 ft 482 kts 94°
2026-05-05 05:44 44.24674 71.08698 33071 ft 482 kts 94°
2026-05-05 05:44 44.24051 71.18015 33065 ft 482 kts 94°
2026-05-05 05:45 44.23420 71.27332 33064 ft 482 kts 94°
2026-05-05 05:45 44.22787 71.36597 33067 ft 482 kts 94°
2026-05-05 05:46 44.22147 71.45955 33068 ft 482 kts 94°
2026-05-05 05:46 44.21523 71.55205 33071 ft 482 kts 94°
2026-05-05 05:47 44.20891 71.64497 33062 ft 481 kts 94°
2026-05-05 05:47 44.20251 71.73768 33063 ft 480 kts 95°
2026-05-05 05:48 44.19602 71.83036 33066 ft 480 kts 95°
2026-05-05 05:48 44.18947 71.92287 33069 ft 479 kts 95°
2026-05-05 05:49 44.18284 72.01531 33071 ft 479 kts 95°
2026-05-05 05:49 44.17614 72.10779 33068 ft 479 kts 95°
2026-05-05 05:50 44.16937 72.20010 33070 ft 479 kts 95°
2026-05-05 05:50 44.16257 72.29193 33069 ft 480 kts 95°
2026-05-05 05:51 44.15563 72.38449 33062 ft 480 kts 96°
2026-05-05 05:51 44.14862 72.47706 33065 ft 481 kts 96°
2026-05-05 05:52 44.14272 72.55408 33063 ft 481 kts 96°
2026-05-05 05:52 44.13556 72.64675 33062 ft 481 kts 96°
2026-05-05 05:53 44.12715 72.75443 33059 ft 482 kts 96°
2026-05-05 05:53 44.12104 72.83176 33056 ft 482 kts 96°
2026-05-05 05:54 44.11366 72.92444 33052 ft 482 kts 96°
2026-05-05 05:54 44.10620 73.01671 33052 ft 481 kts 96°
2026-05-05 05:55 44.09854 73.10936 33052 ft 482 kts 96°
2026-05-05 05:55 44.09077 73.20229 33050 ft 483 kts 96°
2026-05-05 05:56 44.08295 73.29513 33047 ft 483 kts 96°
2026-05-05 05:56 44.07505 73.38812 33036 ft 484 kts 96°
2026-05-05 05:57 44.06707 73.48110 33035 ft 484 kts 97°
2026-05-05 05:57 44.05905 73.57362 33036 ft 484 kts 97°
2026-05-05 05:58 44.05093 73.66650 33031 ft 484 kts 97°
2026-05-05 05:58 44.04273 73.75936 33032 ft 483 kts 97°
2026-05-05 05:59 44.03447 73.85206 33037 ft 482 kts 97°
2026-05-05 05:59 44.02614 73.94458 33037 ft 482 kts 97°
2026-05-05 06:00 44.01777 74.03685 33041 ft 481 kts 97°
2026-05-05 06:00 44.00931 74.12911 33041 ft 481 kts 97°
2026-05-05 06:01 44.00084 74.22079 33046 ft 481 kts 97°
2026-05-05 06:01 43.99224 74.31295 33046 ft 481 kts 97°
2026-05-05 06:02 43.98358 74.40507 33054 ft 481 kts 97°
2026-05-05 06:02 43.97484 74.49721 33063 ft 481 kts 97°
2026-05-05 06:03 43.96647 74.58965 33063 ft 481 kts 97°
2026-05-05 06:03 43.95860 74.68130 33054 ft 482 kts 97°
2026-05-05 06:04 43.95056 74.77386 33068 ft 484 kts 97°
2026-05-05 06:04 43.94232 74.86684 33071 ft 486 kts 97°
2026-05-05 06:05 43.93395 74.96012 33069 ft 487 kts 97°
2026-05-05 06:05 43.92547 75.05357 33064 ft 488 kts 97°
2026-05-05 06:06 43.91692 75.14700 33064 ft 489 kts 97°
2026-05-05 06:06 43.90833 75.24006 33066 ft 488 kts 97°
2026-05-05 06:07 43.89965 75.33333 33066 ft 488 kts 97°
2026-05-05 06:07 43.89088 75.42668 33067 ft 487 kts 97°
2026-05-05 06:08 43.88206 75.51966 33067 ft 486 kts 97°
2026-05-05 06:08 43.87315 75.61283 33072 ft 487 kts 97°
2026-05-05 06:09 43.86416 75.70603 33067 ft 489 kts 97°
2026-05-05 06:09 43.85505 75.79962 33068 ft 490 kts 97°
2026-05-05 06:10 43.84587 75.89315 33068 ft 491 kts 97°
2026-05-05 06:10 43.83666 75.98631 33070 ft 491 kts 97°
2026-05-05 06:11 43.82653 76.07985 33064 ft 491 kts 99°
2026-05-05 06:11 43.81527 76.17310 33070 ft 490 kts 99°
2026-05-05 06:12 43.80400 76.26612 33063 ft 489 kts 99°
2026-05-05 06:12 43.79288 76.35875 33056 ft 487 kts 99°
2026-05-05 06:13 43.78178 76.45117 33056 ft 487 kts 99°
2026-05-05 06:13 43.77066 76.54311 33073 ft 487 kts 98°
2026-05-05 06:14 43.75936 76.63576 33066 ft 488 kts 99°
2026-05-05 06:14 43.74798 76.72843 33063 ft 488 kts 99°
2026-05-05 06:15 43.73651 76.82112 33057 ft 489 kts 99°
2026-05-05 06:15 43.72498 76.91373 33064 ft 489 kts 99°
2026-05-05 06:16 43.71336 77.00643 33050 ft 488 kts 99°
2026-05-05 06:16 43.70178 77.09821 33059 ft 488 kts 99°
2026-05-05 06:17 43.69005 77.19063 33048 ft 487 kts 99°
2026-05-05 06:17 43.67818 77.28281 33067 ft 488 kts 99°
2026-05-05 06:18 43.66615 77.37524 33060 ft 489 kts 99°
2026-05-05 06:18 43.65404 77.46782 33063 ft 490 kts 99°
2026-05-05 06:19 43.64185 77.56051 33056 ft 491 kts 99°
2026-05-05 06:19 43.62957 77.65330 33071 ft 492 kts 99°
2026-05-05 06:20 43.61717 77.74641 33067 ft 493 kts 100°
2026-05-05 06:20 43.60478 77.83882 33069 ft 493 kts 100°
2026-05-05 06:21 43.59222 77.93191 33064 ft 493 kts 100°
2026-05-05 06:21 43.57960 78.02499 33071 ft 494 kts 100°
2026-05-05 06:22 43.57206 78.11884 33067 ft 493 kts 90°
2026-05-05 06:22 43.57102 78.21339 33070 ft 493 kts 90°
2026-05-05 06:23 43.56979 78.30796 33067 ft 493 kts 90°
2026-05-05 06:23 43.56817 78.40193 33055 ft 493 kts 91°
2026-05-05 06:24 43.56632 78.49652 33064 ft 493 kts 91°
2026-05-05 06:24 43.56439 78.59110 33062 ft 493 kts 91°
2026-05-05 06:25 43.56241 78.68569 33069 ft 493 kts 91°
2026-05-05 06:25 43.56035 78.78039 33056 ft 493 kts 91°
2026-05-05 06:26 43.55823 78.87442 33056 ft 493 kts 91°
2026-05-05 06:26 43.55602 78.96891 33053 ft 493 kts 91°
2026-05-05 06:27 43.55256 79.11070 33046 ft 492 kts 91°
2026-05-05 06:28 43.55018 79.20497 33053 ft 492 kts 91°
2026-05-05 06:28 43.54770 79.29925 33060 ft 492 kts 91°
2026-05-05 06:29 43.54514 79.39299 33056 ft 492 kts 91°
2026-05-05 06:29 43.54250 79.48722 33054 ft 492 kts 91°
2026-05-05 06:30 43.53979 79.58159 33071 ft 494 kts 91°
2026-05-05 06:30 43.53698 79.67663 33076 ft 497 kts 91°
2026-05-05 06:31 43.53411 79.77135 33078 ft 499 kts 91°
2026-05-05 06:31 43.53111 79.86692 33085 ft 500 kts 91°
2026-05-05 06:32 43.52796 79.96289 33080 ft 501 kts 92°
2026-05-05 06:32 43.52475 80.05875 33085 ft 501 kts 92°
2026-05-05 06:33 43.52148 80.15448 33084 ft 500 kts 92°
2026-05-05 06:33 43.51812 80.25018 33087 ft 499 kts 92°
2026-05-05 06:34 43.51470 80.34567 33088 ft 499 kts 92°
2026-05-05 06:34 43.51120 80.44115 33092 ft 498 kts 92°
2026-05-05 06:35 43.50764 80.53598 33099 ft 498 kts 92°
2026-05-05 06:35 43.50399 80.63113 33101 ft 498 kts 92°
2026-05-05 06:36 43.50026 80.72652 33098 ft 498 kts 92°
2026-05-05 06:36 43.49790 80.82167 33169 ft 496 kts 90°
2026-05-05 06:37 43.49699 80.91669 33204 ft 496 kts 89°
2026-05-05 06:37 43.49587 81.01127 33205 ft 497 kts 90°
2026-05-05 06:38 43.49437 81.10667 33199 ft 498 kts 90°
2026-05-05 06:38 43.49270 81.20211 33203 ft 499 kts 90°
2026-05-05 06:39 43.49095 81.29782 33194 ft 500 kts 90°
2026-05-05 06:39 43.48916 81.39326 33189 ft 502 kts 90°
2026-05-05 06:40 43.48727 81.48947 33190 ft 504 kts 90°
2026-05-05 06:40 43.48528 81.58624 33197 ft 505 kts 90°
2026-05-05 06:41 43.48322 81.68311 33187 ft 506 kts 90°
2026-05-05 06:41 43.48140 81.76367 33179 ft 506 kts 91°
2026-05-05 06:42 43.47865 81.87636 33181 ft 506 kts 91°
2026-05-05 06:42 43.47621 81.97332 33167 ft 506 kts 91°
2026-05-05 06:43 43.47414 82.05385 33173 ft 505 kts 91°
2026-05-05 06:43 43.47158 82.15056 33170 ft 505 kts 91°
2026-05-05 06:44 43.46895 82.24711 33173 ft 504 kts 91°
2026-05-05 06:44 43.46623 82.34360 33173 ft 504 kts 91°
2026-05-05 06:45 43.46343 82.43996 33179 ft 504 kts 91°
2026-05-05 06:45 43.46055 82.53653 33172 ft 504 kts 91°
2026-05-05 06:46 43.45759 82.63296 33178 ft 505 kts 91°
2026-05-05 06:46 43.45457 82.72891 33188 ft 505 kts 91°
2026-05-05 06:47 43.45144 82.82565 33193 ft 506 kts 91°
2026-05-05 06:47 43.44822 82.92245 33211 ft 506 kts 91°
2026-05-05 06:48 43.44492 83.01949 33214 ft 507 kts 91°
2026-05-05 06:48 43.44155 83.11593 33220 ft 508 kts 92°
2026-05-05 06:49 43.43808 83.21314 33241 ft 509 kts 92°
2026-05-05 06:49 43.43452 83.31051 33217 ft 510 kts 92°
2026-05-05 06:50 43.43002 83.40799 33237 ft 511 kts 95°
2026-05-05 06:50 43.42190 83.50525 33254 ft 512 kts 96°
2026-05-05 06:51 43.41329 83.60261 33253 ft 514 kts 96°
2026-05-05 06:51 43.40486 83.69971 33255 ft 515 kts 96°
2026-05-05 06:52 43.39640 83.79818 33251 ft 516 kts 96°
2026-05-05 06:52 43.38795 83.89565 33251 ft 517 kts 96°
2026-05-05 06:53 43.37934 83.99393 33244 ft 518 kts 97°
2026-05-05 06:53 43.37061 84.09240 33234 ft 518 kts 97°
2026-05-05 06:54 43.36180 84.19080 33237 ft 518 kts 97°
2026-05-05 06:54 43.35291 84.28921 33239 ft 518 kts 97°
2026-05-05 06:55 43.34395 84.38735 33223 ft 518 kts 97°
2026-05-05 06:55 43.33465 84.48563 33227 ft 518 kts 97°
2026-05-05 06:56 43.32526 84.58322 33218 ft 518 kts 97°
2026-05-05 06:56 43.31576 84.68140 33228 ft 518 kts 98°
2026-05-05 06:57 43.30619 84.77978 33186 ft 519 kts 98°
2026-05-05 06:57 43.29655 84.87778 33193 ft 518 kts 98°
2026-05-05 06:58 43.28686 84.97568 33183 ft 518 kts 98°
2026-05-05 06:58 43.27714 85.07301 33197 ft 518 kts 98°
2026-05-05 06:59 43.26726 85.17098 33194 ft 518 kts 98°
2026-05-05 06:59 43.25730 85.26877 33203 ft 517 kts 98°
2026-05-05 07:00 43.24726 85.36660 33194 ft 518 kts 98°
2026-05-05 07:00 43.23713 85.46449 33208 ft 519 kts 99°
2026-05-05 07:01 43.22689 85.56258 33210 ft 520 kts 99°
2026-05-05 07:01 43.21655 85.66081 33221 ft 521 kts 99°
2026-05-05 07:02 43.20610 85.75922 33233 ft 522 kts 99°
2026-05-05 07:02 43.19557 85.85767 33221 ft 522 kts 99°
2026-05-05 07:03 43.19207 85.95636 33225 ft 519 kts 79°
2026-05-05 07:03 43.20115 86.00408 33250 ft 517 kts 68°
2026-05-05 07:03 43.21664 86.04818 33235 ft 513 kts 54°
2026-05-05 07:04 43.25781 86.12803 33237 ft 513 kts 53°
2026-05-05 07:04 43.29779 86.20935 33270 ft 515 kts 54°
2026-05-05 07:05 43.33734 86.29123 33244 ft 518 kts 54°
2026-05-05 07:05 43.37728 86.37373 33279 ft 519 kts 54°
2026-05-05 07:06 43.41743 86.45679 33261 ft 522 kts 54°
2026-05-05 07:06 43.45781 86.54007 33277 ft 522 kts 53°
2026-05-05 07:07 43.49822 86.62329 33249 ft 523 kts 53°
2026-05-05 07:07 43.53829 86.70619 33247 ft 523 kts 53°
2026-05-05 07:08 43.57834 86.78987 33223 ft 523 kts 54°
2026-05-05 07:08 43.61826 86.87417 33218 ft 524 kts 54°
2026-05-05 07:09 43.65814 86.95851 33170 ft 523 kts 54°
2026-05-05 07:09 43.69787 87.04270 33194 ft 523 kts 54°
2026-05-05 07:10 43.73752 87.12693 33170 ft 522 kts 54°
2026-05-05 07:10 43.77674 87.21081 33162 ft 522 kts 54°
2026-05-05 07:11 43.81606 87.29539 33148 ft 523 kts 54°
2026-05-05 07:11 43.85550 87.38043 33152 ft 524 kts 54°
2026-05-05 07:12 43.89485 87.46548 33148 ft 524 kts 54°
2026-05-05 07:12 43.93557 87.54929 33153 ft 522 kts 50°
2026-05-05 07:13 43.97993 87.62924 33151 ft 522 kts 49°
2026-05-05 07:13 44.02444 87.70899 33161 ft 523 kts 49°
2026-05-05 07:14 44.06845 87.78969 33150 ft 524 kts 50°
2026-05-05 07:14 44.11204 87.87024 33158 ft 524 kts 50°
2026-05-05 07:15 44.15430 87.95328 33153 ft 528 kts 58°
2026-05-05 07:15 44.18327 88.04766 33164 ft 532 kts 72°
2026-05-05 07:16 44.19913 88.14862 33169 ft 533 kts 78°
2026-05-05 07:16 44.21335 88.25024 33174 ft 534 kts 78°
2026-05-05 07:17 44.22802 88.35189 33163 ft 535 kts 77°
2026-05-05 07:17 44.24300 88.45357 33157 ft 536 kts 77°
2026-05-05 07:18 44.25790 88.55480 33137 ft 536 kts 77°
2026-05-05 07:18 44.27276 88.65673 33142 ft 536 kts 78°
2026-05-05 07:19 44.28752 88.75882 33139 ft 535 kts 78°
2026-05-05 07:19 44.30216 88.86079 33125 ft 535 kts 78°
2026-05-05 07:20 44.31669 88.96267 33124 ft 535 kts 78°
2026-05-05 07:20 44.33107 89.06417 33128 ft 535 kts 78°
2026-05-05 07:21 44.34543 89.16625 33117 ft 535 kts 78°
2026-05-05 07:21 44.35971 89.26834 33112 ft 535 kts 78°
2026-05-05 07:22 44.37390 89.37057 33113 ft 536 kts 78°
2026-05-05 07:22 44.38802 89.47303 33108 ft 536 kts 78°
2026-05-05 07:23 44.40204 89.57540 33096 ft 537 kts 79°
2026-05-05 07:23 44.41028 89.67906 33089 ft 536 kts 92°
2026-05-05 07:24 44.40041 89.78114 33097 ft 532 kts 108°
2026-05-05 07:24 44.37833 89.87980 33111 ft 531 kts 110°
2026-05-05 07:25 44.35600 89.97824 33103 ft 532 kts 110°
2026-05-05 07:25 44.33412 90.07706 33096 ft 533 kts 110°
2026-05-05 07:26 44.31237 90.17612 33090 ft 533 kts 110°
2026-05-05 07:26 44.29054 90.27516 33102 ft 533 kts 110°
2026-05-05 07:27 44.26868 90.37369 33097 ft 534 kts 110°
2026-05-05 07:27 44.24663 90.47250 33091 ft 534 kts 110°
2026-05-05 07:28 44.22447 90.57135 33086 ft 533 kts 110°
2026-05-05 07:28 44.20231 90.66979 33090 ft 532 kts 110°
2026-05-05 07:29 44.18385 90.75148 33096 ft 531 kts 110°
2026-05-05 07:29 44.15795 90.86550 33094 ft 530 kts 111°
2026-05-05 07:30 44.13568 90.96318 33095 ft 529 kts 111°
2026-05-05 07:30 44.10585 91.09338 33094 ft 528 kts 111°
2026-05-05 07:31 44.08353 91.19083 33099 ft 529 kts 111°
2026-05-05 07:31 44.06112 91.28834 33096 ft 529 kts 111°
2026-05-05 07:32 44.03875 91.38526 33094 ft 529 kts 111°
2026-05-05 07:32 44.01608 91.48250 33069 ft 530 kts 111°
2026-05-05 07:33 43.99301 91.57981 33082 ft 530 kts 111°
2026-05-05 07:33 43.96987 91.67694 33091 ft 530 kts 111°
2026-05-05 07:34 43.94667 91.77413 33088 ft 531 kts 111°
2026-05-05 07:34 43.92341 91.87127 33108 ft 530 kts 111°
2026-05-05 07:35 43.90006 91.96841 33117 ft 531 kts 112°
2026-05-05 07:35 43.87658 92.06558 33100 ft 532 kts 112°
2026-05-05 07:36 43.85301 92.16273 33102 ft 532 kts 112°
2026-05-05 07:36 43.82936 92.25980 33098 ft 531 kts 112°
2026-05-05 07:37 43.80567 92.35664 33072 ft 531 kts 112°
2026-05-05 07:37 43.78186 92.45355 33108 ft 531 kts 112°
2026-05-05 07:38 43.75815 92.54958 33096 ft 531 kts 112°
2026-05-05 07:38 43.73420 92.64626 33088 ft 531 kts 112°
2026-05-05 07:39 43.71012 92.74303 33091 ft 532 kts 113°
2026-05-05 07:39 43.68593 92.83986 33102 ft 533 kts 113°
2026-05-05 07:40 43.66159 92.93696 33104 ft 535 kts 113°
2026-05-05 07:40 43.63745 93.03368 33101 ft 537 kts 112°
2026-05-05 07:41 43.61404 93.13168 33097 ft 538 kts 112°
2026-05-05 07:41 43.59072 93.22998 33082 ft 538 kts 112°
2026-05-05 07:42 43.56722 93.32796 33086 ft 539 kts 112°
2026-05-05 07:42 43.54342 93.42627 33099 ft 541 kts 112°
2026-05-05 07:43 43.51943 93.52483 33084 ft 543 kts 113°
2026-05-05 07:43 43.49530 93.62362 33079 ft 545 kts 113°
2026-05-05 07:44 43.47105 93.72253 33081 ft 546 kts 113°
2026-05-05 07:44 43.44668 93.82152 33058 ft 546 kts 113°
2026-05-05 07:45 43.42221 93.92042 33055 ft 547 kts 113°
2026-05-05 07:45 43.39776 94.01885 33063 ft 547 kts 113°
2026-05-05 07:46 43.37309 94.11775 33074 ft 547 kts 113°
2026-05-05 07:46 43.34834 94.21654 33038 ft 548 kts 114°
2026-05-05 07:47 43.32335 94.31581 33077 ft 552 kts 114°
2026-05-05 07:47 43.29806 94.41583 33078 ft 556 kts 114°
2026-05-05 07:48 43.27255 94.51638 33073 ft 559 kts 114°
2026-05-05 07:48 43.24689 94.61713 33057 ft 561 kts 114°
2026-05-05 07:49 43.22121 94.71751 33072 ft 561 kts 114°
2026-05-05 07:49 43.19522 94.81866 33029 ft 561 kts 114°
2026-05-05 07:50 43.16930 94.91917 33007 ft 559 kts 114°
2026-05-05 07:50 43.14258 95.01890 33003 ft 552 kts 121°
2026-05-05 07:51 43.12399 95.06346 33015 ft 539 kts 133°
2026-05-05 07:51 43.10047 95.10287 32999 ft 531 kts 142°
2026-05-05 07:51 43.04366 95.16501 33024 ft 519 kts 156°
2026-05-05 07:52 42.98303 95.21932 32989 ft 523 kts 155°
2026-05-05 07:52 42.92241 95.27500 32978 ft 525 kts 155°
2026-05-05 07:53 42.86196 95.33117 32968 ft 524 kts 155°
2026-05-05 07:53 42.80237 95.38644 32960 ft 520 kts 155°
2026-05-05 07:54 42.74271 95.44152 32954 ft 516 kts 155°
2026-05-05 07:54 42.68341 95.49606 32916 ft 513 kts 155°
2026-05-05 07:55 42.62447 95.55017 32941 ft 510 kts 155°
2026-05-05 07:55 42.56572 95.60398 32950 ft 508 kts 155°
2026-05-05 07:56 42.50715 95.65749 32948 ft 507 kts 155°
2026-05-05 07:56 42.44893 95.71058 32935 ft 507 kts 155°
2026-05-05 07:57 42.42087 95.74002 32936 ft 520 kts 142°
2026-05-05 07:57 42.39876 95.78008 32954 ft 544 kts 123°
2026-05-05 07:57 42.38526 95.82857 32959 ft 559 kts 105°
2026-05-05 07:57 42.38159 95.88116 32961 ft 561 kts 93°
2026-05-05 07:58 42.38068 95.98692 32953 ft 563 kts 93°
2026-05-05 07:58 42.37911 96.09281 32951 ft 563 kts 94°
2026-05-05 07:59 42.37638 96.19820 32956 ft 564 kts 95°
2026-05-05 07:59 42.37310 96.30438 32948 ft 564 kts 95°
2026-05-05 08:00 42.36975 96.41043 32944 ft 564 kts 95°
2026-05-05 08:00 42.36639 96.51633 32942 ft 564 kts 95°
2026-05-05 08:01 42.36298 96.62215 32935 ft 563 kts 95°
2026-05-05 08:01 42.35949 96.72732 32922 ft 563 kts 95°
2026-05-05 08:02 42.35588 96.83296 32925 ft 563 kts 95°
2026-05-05 08:02 42.35216 96.93861 32907 ft 563 kts 95°
2026-05-05 08:03 42.34834 97.04440 32900 ft 563 kts 95°
2026-05-05 08:03 42.34443 97.15026 32885 ft 564 kts 95°
2026-05-05 08:04 42.34041 97.25638 32884 ft 564 kts 95°
2026-05-05 08:04 42.33629 97.36232 32875 ft 564 kts 95°
2026-05-05 08:05 42.33208 97.46834 32874 ft 564 kts 95°
2026-05-05 08:05 42.32780 97.57357 32872 ft 564 kts 95°
2026-05-05 08:06 42.32339 97.67950 32855 ft 565 kts 95°
2026-05-05 08:06 42.31887 97.78562 32850 ft 565 kts 95°
2026-05-05 08:07 42.31427 97.89162 32847 ft 565 kts 95°
2026-05-05 08:07 42.30956 97.99779 32839 ft 565 kts 95°
2026-05-05 08:08 42.30479 98.10315 32835 ft 565 kts 96°
2026-05-05 08:08 42.29988 98.20925 32824 ft 566 kts 96°
2026-05-05 08:09 42.29490 98.31530 32829 ft 565 kts 96°
2026-05-05 08:09 42.28962 98.42095 32806 ft 566 kts 96°
2026-05-05 08:10 42.28406 98.52709 32826 ft 566 kts 96°
2026-05-05 08:10 42.27842 98.63328 32825 ft 567 kts 96°
2026-05-05 08:11 42.27272 98.73968 32797 ft 567 kts 96°
2026-05-05 08:11 42.26693 98.84594 32810 ft 568 kts 96°
2026-05-05 08:12 42.26105 98.95227 32785 ft 568 kts 96°
2026-05-05 08:12 42.25509 99.05802 32799 ft 567 kts 96°
2026-05-05 08:13 42.24902 99.16418 32796 ft 568 kts 96°
2026-05-05 08:13 42.24282 99.27055 32790 ft 568 kts 96°
2026-05-05 08:14 42.23654 99.37675 32793 ft 568 kts 96°
2026-05-05 08:14 42.23016 99.48300 32795 ft 568 kts 96°
2026-05-05 08:15 42.22366 99.58937 32772 ft 570 kts 96°
2026-05-05 08:15 42.21706 99.69598 32757 ft 571 kts 96°
2026-05-05 08:16 42.21039 99.80211 32748 ft 571 kts 96°
2026-05-05 08:16 42.20357 99.90896 32730 ft 572 kts 96°
2026-05-05 08:17 42.19781 99.99794 32726 ft 573 kts 96°
2026-05-05 08:17 42.19079 100.10515 32730 ft 573 kts 96°
2026-05-05 08:18 42.18365 100.21240 32697 ft 574 kts 96°
2026-05-05 08:18 42.17643 100.31955 32712 ft 573 kts 96°
2026-05-05 08:19 42.16915 100.42594 32710 ft 574 kts 96°
2026-05-05 08:19 42.16173 100.53304 32710 ft 574 kts 96°
2026-05-05 08:20 42.15420 100.64014 32700 ft 573 kts 96°
2026-05-05 08:20 42.14661 100.74685 32696 ft 572 kts 96°
2026-05-05 08:21 42.13895 100.85299 32699 ft 571 kts 97°
2026-05-05 08:21 42.13117 100.95960 32692 ft 571 kts 97°
2026-05-05 08:22 42.11872 101.06483 32680 ft 568 kts 106°
2026-05-05 08:22 42.09420 101.16535 32706 ft 564 kts 114°
2026-05-05 08:23 42.06727 101.26455 32684 ft 565 kts 114°
2026-05-05 08:23 42.04070 101.36420 32680 ft 565 kts 112°
2026-05-05 08:24 42.01459 101.46326 32680 ft 565 kts 112°
2026-05-05 08:24 41.98827 101.56294 32686 ft 564 kts 112°
2026-05-05 08:25 41.96187 101.66232 32675 ft 564 kts 112°
2026-05-05 08:25 41.93536 101.76155 32678 ft 564 kts 112°
2026-05-05 08:26 41.90887 101.86028 32665 ft 564 kts 112°
2026-05-05 08:26 41.88217 101.95942 32673 ft 565 kts 113°
2026-05-05 08:27 41.85538 102.05854 32693 ft 565 kts 113°
2026-05-05 08:27 41.82843 102.15781 32661 ft 566 kts 113°
2026-05-05 08:28 41.80131 102.25732 32662 ft 567 kts 113°
2026-05-05 08:28 41.77430 102.35604 32655 ft 568 kts 113°
2026-05-05 08:29 41.74699 102.45547 32643 ft 568 kts 113°
2026-05-05 08:30 41.70587 102.60449 32634 ft 568 kts 113°
2026-05-05 08:30 41.67843 102.70346 32645 ft 567 kts 113°
2026-05-05 08:31 41.65088 102.80228 32646 ft 566 kts 113°
2026-05-05 08:31 41.62334 102.90069 32641 ft 565 kts 113°
2026-05-05 08:32 41.59574 102.99902 32635 ft 564 kts 113°
2026-05-05 08:32 41.56816 103.09654 32632 ft 564 kts 113°
2026-05-05 08:33 41.54026 103.19464 32630 ft 564 kts 113°
2026-05-05 08:33 41.51234 103.29253 32633 ft 565 kts 113°
2026-05-05 08:34 41.48430 103.39054 32627 ft 565 kts 113°
2026-05-05 08:34 41.45616 103.48852 32630 ft 566 kts 113°
2026-05-05 08:35 41.42792 103.58647 32630 ft 567 kts 113°
2026-05-05 08:35 41.39968 103.68403 32619 ft 567 kts 113°
2026-05-05 08:36 41.37119 103.78211 32622 ft 568 kts 114°
2026-05-05 08:36 41.34262 103.88010 32622 ft 566 kts 113°
2026-05-05 08:37 41.31403 103.97778 32614 ft 566 kts 113°
2026-05-05 08:37 41.28535 104.07538 32612 ft 565 kts 113°
2026-05-05 08:38 41.25681 104.17215 32613 ft 565 kts 114°
2026-05-05 08:38 41.22806 104.26928 32620 ft 565 kts 114°
2026-05-05 08:39 41.19916 104.36655 32629 ft 566 kts 114°
2026-05-05 08:39 41.17016 104.46378 32626 ft 567 kts 114°
2026-05-05 08:40 41.14104 104.56110 32626 ft 567 kts 114°
2026-05-05 08:40 41.11205 104.65766 32633 ft 567 kts 114°
2026-05-05 08:41 41.08218 104.75461 32630 ft 567 kts 116°
2026-05-05 08:41 41.04982 104.84988 32640 ft 566 kts 117°
2026-05-05 08:42 41.01691 104.94476 32625 ft 566 kts 117°
2026-05-05 08:42 40.98441 105.03959 32630 ft 565 kts 116°
2026-05-05 08:43 40.95218 105.13434 32630 ft 564 kts 116°
2026-05-05 08:43 40.91992 105.22895 32638 ft 563 kts 116°
2026-05-05 08:44 40.88779 105.32275 32630 ft 563 kts 116°
2026-05-05 08:44 40.85546 105.41674 32636 ft 562 kts 116°
2026-05-05 08:45 40.82299 105.51079 32639 ft 562 kts 117°
2026-05-05 08:45 40.79045 105.60476 32642 ft 562 kts 117°
2026-05-05 08:46 40.75810 105.69787 32633 ft 562 kts 116°
2026-05-05 08:46 40.72545 105.79155 32639 ft 561 kts 116°
2026-05-05 08:47 40.69276 105.88503 32643 ft 561 kts 116°
2026-05-05 08:47 40.66004 105.97828 32653 ft 561 kts 116°
2026-05-05 08:48 40.62743 106.07092 32639 ft 560 kts 116°
2026-05-05 08:48 40.59453 106.16406 32636 ft 560 kts 116°
2026-05-05 08:49 40.56162 106.25693 32631 ft 559 kts 116°
2026-05-05 08:49 40.52870 106.34959 32616 ft 560 kts 117°
2026-05-05 08:50 40.49565 106.44224 32611 ft 560 kts 116°
2026-05-05 08:50 40.46246 106.53502 32610 ft 560 kts 116°
2026-05-05 08:51 40.42944 106.62702 32604 ft 560 kts 116°
2026-05-05 08:51 40.39618 106.71942 32611 ft 560 kts 116°
2026-05-05 08:52 40.36268 106.81221 32616 ft 561 kts 116°
2026-05-05 08:52 40.33025 106.90515 32600 ft 561 kts 109°
2026-05-05 08:52 40.32038 106.95385 32627 ft 560 kts 98°
2026-05-05 08:53 40.31621 107.00441 32628 ft 558 kts 89°
2026-05-05 08:53 40.31742 107.05507 32637 ft 553 kts 78°
2026-05-05 08:53 40.32375 107.10456 32629 ft 550 kts 75°
2026-05-05 08:54 40.33760 107.20373 32637 ft 553 kts 75°
2026-05-05 08:54 40.35061 107.30333 32617 ft 555 kts 76°
2026-05-05 08:55 40.36284 107.40265 32618 ft 556 kts 76°
2026-05-05 08:55 40.37496 107.50276 32618 ft 556 kts 77°
2026-05-05 08:56 40.38707 107.60285 32620 ft 555 kts 76°
2026-05-05 08:56 40.39915 107.70297 32635 ft 554 kts 77°
2026-05-05 08:57 40.41111 107.80290 32629 ft 555 kts 77°
2026-05-05 08:57 40.42298 107.90289 32617 ft 554 kts 77°
2026-05-05 08:58 40.43475 108.00287 32613 ft 554 kts 77°
2026-05-05 08:58 40.44630 108.10276 32606 ft 553 kts 77°
2026-05-05 08:59 40.45773 108.20267 32610 ft 553 kts 77°
2026-05-05 08:59 40.46902 108.30196 32614 ft 553 kts 77°
2026-05-05 09:00 40.48030 108.40191 32600 ft 553 kts 77°
2026-05-05 09:00 40.49152 108.50204 32619 ft 554 kts 77°
2026-05-05 09:01 40.50267 108.60230 32610 ft 554 kts 77°
2026-05-05 09:01 40.51372 108.70264 32605 ft 555 kts 77°
2026-05-05 09:02 40.52469 108.80301 32612 ft 555 kts 77°
2026-05-05 09:02 40.53551 108.90278 32613 ft 554 kts 77°
2026-05-05 09:03 40.54631 109.00323 32602 ft 554 kts 78°
2026-05-05 09:03 40.55701 109.10360 32600 ft 554 kts 78°
2026-05-05 09:04 40.56759 109.20381 32626 ft 553 kts 78°
2026-05-05 09:04 40.57810 109.30400 32636 ft 553 kts 77°
2026-05-05 09:05 40.58854 109.40436 32619 ft 554 kts 77°
2026-05-05 09:05 40.59715 109.48797 32636 ft 554 kts 77°
2026-05-05 09:06 40.60738 109.58793 32633 ft 554 kts 77°
2026-05-05 09:06 40.61758 109.68853 32651 ft 553 kts 77°
2026-05-05 09:07 40.62767 109.78904 32642 ft 553 kts 77°
2026-05-05 09:07 40.63768 109.88954 32651 ft 553 kts 77°
2026-05-05 09:08 40.64691 109.99012 32681 ft 555 kts 81°
2026-05-05 09:08 40.64747 110.09179 32911 ft 562 kts 87°
2026-05-05 09:08 40.64670 110.14333 33303 ft 561 kts 87°
2026-05-05 09:09 40.64601 110.19437 33815 ft 556 kts 86°
2026-05-05 09:09 40.64549 110.24519 34205 ft 554 kts 86°
2026-05-05 09:09 40.64513 110.29592 34486 ft 555 kts 86°
2026-05-05 09:09 40.64483 110.34691 34637 ft 557 kts 86°
2026-05-05 09:10 40.64452 110.39794 34682 ft 559 kts 86°
2026-05-05 09:10 40.64370 110.50008 34697 ft 554 kts 86°
2026-05-05 09:11 40.64275 110.60088 34678 ft 543 kts 86°
2026-05-05 09:11 40.64180 110.70058 34731 ft 548 kts 86°
2026-05-05 09:12 40.64082 110.80117 34710 ft 556 kts 86°
2026-05-05 09:12 40.63965 110.90274 34729 ft 554 kts 86°
2026-05-05 09:13 40.63839 111.00395 34716 ft 551 kts 86°
2026-05-05 09:13 40.63708 111.10467 34714 ft 549 kts 86°
2026-05-05 09:14 40.63570 111.20482 34746 ft 546 kts 87°
2026-05-05 09:14 40.63422 111.30480 34718 ft 544 kts 87°
2026-05-05 09:15 40.63270 111.40362 34736 ft 541 kts 87°
2026-05-05 09:15 40.63109 111.50260 34734 ft 540 kts 87°
2026-05-05 09:16 40.62941 111.60167 34756 ft 541 kts 87°
2026-05-05 09:16 40.62763 111.70076 34752 ft 542 kts 87°
2026-05-05 09:17 40.62578 111.79948 34758 ft 543 kts 87°
2026-05-05 09:17 40.62384 111.89890 34764 ft 543 kts 87°
2026-05-05 09:18 40.62265 111.99824 34769 ft 543 kts 88°
2026-05-05 09:18 40.61954 112.09766 34770 ft 543 kts 88°
2026-05-05 09:19 40.61723 112.19695 34785 ft 542 kts 88°
2026-05-05 09:19 40.61505 112.29585 34796 ft 540 kts 88°
2026-05-05 09:20 40.61263 112.39468 34780 ft 538 kts 88°
2026-05-05 09:20 40.61021 112.49245 34778 ft 537 kts 88°
2026-05-05 09:21 40.60585 112.59059 34763 ft 536 kts 92°
2026-05-05 09:21 40.59949 112.68827 34771 ft 536 kts 91°
2026-05-05 09:22 40.59307 112.78590 34774 ft 536 kts 93°
2026-05-05 09:22 40.58513 112.88340 34752 ft 536 kts 92°
2026-05-05 09:23 40.57876 112.98110 34733 ft 536 kts 92°
2026-05-05 09:23 40.57253 113.07890 34744 ft 536 kts 92°
2026-05-05 09:24 40.56598 113.17654 34729 ft 536 kts 92°
2026-05-05 09:24 40.55924 113.27374 34722 ft 536 kts 92°
2026-05-05 09:25 40.55238 113.37134 34723 ft 536 kts 92°
2026-05-05 09:25 40.54546 113.46891 34727 ft 536 kts 92°
2026-05-05 09:26 40.53847 113.56646 34709 ft 536 kts 92°
2026-05-05 09:26 40.53140 113.66402 34710 ft 536 kts 92°
2026-05-05 09:27 40.52423 113.76170 34693 ft 536 kts 93°
2026-05-05 09:27 40.51699 113.85916 34689 ft 535 kts 93°
2026-05-05 09:28 40.50969 113.95651 34679 ft 534 kts 93°
2026-05-05 09:28 40.50323 114.05290 34674 ft 532 kts 91°
2026-05-05 09:29 40.49949 114.15004 34672 ft 530 kts 89°
2026-05-05 09:29 40.49601 114.24680 34671 ft 531 kts 90°
2026-05-05 09:30 40.49198 114.34374 34669 ft 531 kts 90°
2026-05-05 09:30 40.48759 114.44075 34677 ft 532 kts 90°
2026-05-05 09:31 40.48310 114.53785 34682 ft 532 kts 90°
2026-05-05 09:31 40.47860 114.63431 34677 ft 532 kts 90°
2026-05-05 09:32 40.47400 114.73141 34672 ft 532 kts 90°
2026-05-05 09:32 40.46933 114.82848 34684 ft 532 kts 91°
2026-05-05 09:33 40.46454 114.92576 34676 ft 533 kts 91°
2026-05-05 09:33 40.45972 115.02278 34685 ft 532 kts 91°
2026-05-05 09:34 40.45477 115.11976 34690 ft 532 kts 91°
2026-05-05 09:34 40.44976 115.21660 34693 ft 532 kts 91°
2026-05-05 09:35 40.44472 115.31296 34698 ft 531 kts 91°
2026-05-05 09:35 40.43700 115.45738 34707 ft 526 kts 91°
2026-05-05 09:36 40.43168 115.55314 34728 ft 524 kts 92°
2026-05-05 09:36 40.42434 115.64818 34758 ft 523 kts 94°
2026-05-05 09:37 40.41617 115.74315 34740 ft 523 kts 94°
2026-05-05 09:37 40.40822 115.83762 34758 ft 523 kts 94°
2026-05-05 09:38 40.40039 115.93264 34759 ft 524 kts 94°
2026-05-05 09:38 40.39248 116.02813 34764 ft 528 kts 94°
2026-05-05 09:39 40.38448 116.12361 34762 ft 530 kts 94°
2026-05-05 09:39 40.37630 116.21985 34757 ft 532 kts 94°
2026-05-05 09:40 40.36800 116.31639 34753 ft 533 kts 93°
2026-05-05 09:40 40.35964 116.41300 34739 ft 533 kts 93°
2026-05-05 09:41 40.35120 116.50961 34741 ft 533 kts 94°
2026-05-05 09:41 40.34266 116.60611 34738 ft 531 kts 94°
2026-05-05 09:42 40.33422 116.65316 34722 ft 534 kts 111°
2026-05-05 09:42 40.31608 116.69549 34739 ft 534 kts 129°
2026-05-05 09:42 40.28984 116.72960 34745 ft 530 kts 146°
2026-05-05 09:42 40.25882 116.75507 34747 ft 526 kts 157°
2026-05-05 09:43 40.22484 116.77172 34729 ft 517 kts 173°
2026-05-05 09:43 40.18963 116.77905 34744 ft 511 kts 178°
2026-05-05 09:43 40.11879 116.79095 34739 ft 515 kts 177°
2026-05-05 09:44 40.04782 116.80417 34741 ft 519 kts 176°
2026-05-05 09:44 39.97623 116.81856 34741 ft 522 kts 176°
2026-05-05 09:45 39.90426 116.83308 34737 ft 523 kts 176°
2026-05-05 09:45 39.83227 116.84695 34733 ft 521 kts 179°
2026-05-05 09:46 39.76049 116.84852 34723 ft 511 kts 190°
2026-05-05 09:46 39.69036 116.83679 34742 ft 506 kts 193°
2026-05-05 09:47 39.62083 116.82465 34750 ft 506 kts 193°
2026-05-05 09:47 39.55096 116.81295 34743 ft 506 kts 193°
2026-05-05 09:48 39.48107 116.80148 34745 ft 505 kts 193°
2026-05-05 09:48 39.41166 116.79013 34759 ft 505 kts 193°
2026-05-05 09:49 39.34188 116.77871 34761 ft 505 kts 193°
2026-05-05 09:49 39.27198 116.76728 34779 ft 506 kts 193°
2026-05-05 09:50 39.20209 116.75588 34787 ft 506 kts 193°
2026-05-05 09:50 39.13208 116.74448 34778 ft 507 kts 192°
2026-05-05 09:51 39.07380 116.73501 34786 ft 508 kts 192°
2026-05-05 09:51 39.00362 116.72362 34782 ft 509 kts 192°
2026-05-05 09:52 38.93320 116.71222 34779 ft 510 kts 192°
2026-05-05 09:52 38.86269 116.70083 34790 ft 511 kts 192°
2026-05-05 09:53 38.79208 116.68945 34777 ft 512 kts 192°
2026-05-05 09:53 38.72141 116.67808 34796 ft 512 kts 192°
2026-05-05 09:54 38.65100 116.66677 34800 ft 513 kts 192°
2026-05-05 09:54 38.57994 116.65708 34788 ft 515 kts 189°
2026-05-05 09:55 38.50831 116.64960 34800 ft 515 kts 189°
2026-05-05 09:55 38.43690 116.64174 34810 ft 515 kts 190°
2026-05-05 09:56 38.36541 116.63350 34798 ft 515 kts 189°
2026-05-05 09:56 38.29349 116.63221 34810 ft 522 kts 178°
2026-05-05 09:57 38.22170 116.64895 34814 ft 527 kts 166°
2026-05-05 09:57 38.15150 116.67656 34812 ft 528 kts 165°
2026-05-05 09:58 38.08101 116.70299 34819 ft 528 kts 166°
2026-05-05 09:58 38.01102 116.72958 34822 ft 528 kts 165°
2026-05-05 09:59 37.94064 116.75655 34828 ft 528 kts 166°
2026-05-05 09:59 37.87030 116.78340 34828 ft 528 kts 166°
2026-05-05 10:00 37.79987 116.81015 34829 ft 528 kts 166°
2026-05-05 10:00 37.72959 116.83678 34831 ft 527 kts 166°
2026-05-05 10:01 37.65918 116.86341 34828 ft 527 kts 165°
2026-05-05 10:01 37.58927 116.88981 34842 ft 528 kts 165°
2026-05-05 10:02 37.51883 116.91635 34842 ft 528 kts 165°
2026-05-05 10:02 37.44838 116.94284 34833 ft 528 kts 165°
2026-05-05 10:03 37.37790 116.96931 34844 ft 528 kts 165°
2026-05-05 10:03 37.30739 116.99573 34849 ft 529 kts 165°
2026-05-05 10:04 37.23789 117.02642 34849 ft 530 kts 160°
2026-05-05 10:04 37.16875 117.05902 34852 ft 530 kts 160°
2026-05-05 10:05 37.10007 117.09118 34856 ft 531 kts 160°
2026-05-05 10:05 37.03081 117.12350 34857 ft 531 kts 160°
2026-05-05 10:06 36.96151 117.15580 34854 ft 531 kts 160°
2026-05-05 10:06 36.89217 117.18803 34871 ft 531 kts 161°
2026-05-05 10:07 36.82070 117.21057 34874 ft 529 kts 173°
2026-05-05 10:07 36.74748 117.21679 34869 ft 526 kts 183°
2026-05-05 10:08 36.67430 117.21522 34879 ft 526 kts 183°
2026-05-05 10:08 36.60146 117.21422 34882 ft 527 kts 182°
2026-05-05 10:09 36.52808 117.21376 34877 ft 527 kts 182°
2026-05-05 10:09 36.45461 117.21383 34890 ft 528 kts 179°
2026-05-05 10:10 36.38166 117.22609 34902 ft 530 kts 168°
2026-05-05 10:10 36.31097 117.25190 34898 ft 530 kts 163°
2026-05-05 10:11 36.24056 117.27902 34906 ft 529 kts 163°
2026-05-05 10:11 36.17010 117.30542 34908 ft 529 kts 163°
2026-05-05 10:12 36.09963 117.33149 34916 ft 528 kts 163°
2026-05-05 10:12 36.02960 117.35741 34921 ft 528 kts 163°
2026-05-05 10:13 35.95913 117.38356 34908 ft 528 kts 163°
2026-05-05 10:13 35.88896 117.40988 34922 ft 527 kts 163°
2026-05-05 10:14 35.81872 117.43622 34913 ft 527 kts 163°
2026-05-05 10:14 35.74851 117.46246 34921 ft 526 kts 163°
2026-05-05 10:15 35.67849 117.48855 34944 ft 526 kts 163°
2026-05-05 10:15 35.60848 117.51459 34931 ft 525 kts 164°
2026-05-05 10:16 35.53863 117.54053 34932 ft 524 kts 164°
2026-05-05 10:16 35.46928 117.56623 34935 ft 523 kts 164°
2026-05-05 10:17 35.39962 117.59201 34935 ft 523 kts 164°
2026-05-05 10:17 35.32997 117.61773 34960 ft 522 kts 164°
2026-05-05 10:18 35.26031 117.64341 34948 ft 521 kts 164°
2026-05-05 10:18 35.19090 117.66896 34941 ft 520 kts 164°
2026-05-05 10:19 35.12157 117.69444 34939 ft 519 kts 164°
2026-05-05 10:19 35.05244 117.71978 34946 ft 518 kts 164°
2026-05-05 10:20 34.98332 117.74497 34948 ft 518 kts 164°
2026-05-05 10:20 34.91424 117.77010 34945 ft 518 kts 164°
2026-05-05 10:21 34.84518 117.79519 34945 ft 518 kts 164°
2026-05-05 10:21 34.77633 117.81976 34949 ft 518 kts 164°
2026-05-05 10:22 34.70713 117.84458 34953 ft 519 kts 164°
2026-05-05 10:22 34.63771 117.86954 34953 ft 519 kts 164°
2026-05-05 10:23 34.56836 117.89440 34947 ft 519 kts 164°
2026-05-05 10:23 34.49909 117.91919 34957 ft 519 kts 164°
2026-05-05 10:24 34.42964 117.94398 34955 ft 520 kts 164°
2026-05-05 10:24 34.36055 117.96861 34955 ft 520 kts 164°
2026-05-05 10:25 34.29111 117.99333 34960 ft 520 kts 164°
2026-05-05 10:25 34.22192 118.01831 34961 ft 519 kts 163°
2026-05-05 10:26 34.15272 118.04380 34958 ft 519 kts 163°
2026-05-05 10:26 34.08364 118.06913 34971 ft 519 kts 163°
2026-05-05 10:27 34.01456 118.09433 34967 ft 518 kts 164°
2026-05-05 10:27 33.94559 118.11954 34968 ft 517 kts 163°
2026-05-05 10:28 33.87724 118.14455 34968 ft 517 kts 163°
2026-05-05 10:28 33.81016 118.17539 34960 ft 516 kts 154°